GFSSW_sfc_temp_021.txt.gz
Temp
62 62 62 62 62 62 63 63 63 63 63 63 63 63 63 62 63 80 92 97 96 80 82 101 103 104 104 101 105 105 85 85 88 89 89 96 93 97 100 94 94 96 94 95 97
62 62 62 62 62 62 62 62 63 63 63 63 62 62 63 62 83 93 93 82 81 81 97 99 97 101 98 99 102 96 70 86 98 95 94 95 95 95 93 91 90 92 98 97 96
61 61 61 61 61 62 62 62 62 62 62 62 62 62 63 67 87 98 81 81 80 84 104 106 105 102 96 101 100 99 85 97 98 100 100 96 96 98 93 88 92 90 91 93 94
61 61 60 61 61 61 61 61 61 61 61 61 62 62 63 82 79 100 81 81 81 99 101 102 101 96 93 94 102 93 93 99 99 100 100 96 100 94 94 96 99 97 95 94 92
60 60 60 60 60 60 61 60 60 60 60 61 62 63 73 86 90 100 82 84 95 97 98 99 97 97 92 97 100 96 98 100 101 101 101 101 96 95 95 99 101 99 95 93 94
60 60 60 60 60 60 60 60 59 59 60 61 62 62 78 80 107 106 104 101 102 99 99 101 99 102 98 97 98 101 100 99 100 101 100 96 96 96 96 100 98 96 94 95 95
59 59 59 59 60 60 59 59 58 59 60 62 63 71 83 88 107 108 105 104 106 104 99 103 105 101 101 96 103 101 93 97 98 99 97 99 91 91 98 98 95 94 94 95 96
59 59 59 59 59 59 58 57 58 60 62 64 64 77 82 106 109 105 106 103 107 107 104 107 107 102 100 103 100 95 95 88 97 98 98 96 84 94 99 97 94 94 94 94 95
58 58 58 58 58 58 57 57 58 63 65 65 75 83 84 90 97 104 105 99 103 104 104 106 104 97 98 92 90 92 84 87 90 98 96 93 73 95 99 97 94 94 95 94 94
58 58 58 58 57 56 56 57 67 64 69 81 85 81 90 93 101 103 106 104 99 99 96 95 95 90 91 89 78 83 85 89 87 94 94 90 85 95 97 97 96 95 95 94 94
58 57 57 57 56 56 62 90 80 76 81 86 90 90 95 103 104 99 103 100 99 94 86 92 86 81 88 91 92 92 90 88 93 97 92 89 90 92 96 96 96 96 94 95 95
58 57 57 56 56 55 65 85 81 82 75 90 92 93 99 104 92 97 103 92 91 84 90 87 81 91 94 94 92 91 89 89 94 96 93 91 89 94 95 94 96 96 96 95 96
57 57 56 55 56 66 84 84 89 90 76 86 94 93 95 98 91 94 98 94 89 85 87 85 88 94 92 91 89 90 88 89 89 94 95 90 85 90 96 97 97 98 100 99 97
57 57 56 54 64 80 83 87 91 90 70 82 87 92 96 96 87 100 103 95 91 85 88 88 95 90 89 88 91 84 94 93 92 79 77 92 76 86 93 93 95 96 98 100 99
57 56 55 54 66 76 84 90 90 85 60 88 89 101 97 89 93 92 102 96 86 87 89 85 88 88 85 88 93 87 96 92 92 89 84 84 80 83 92 90 94 97 99 100 102
56 56 55 69 74 80 86 87 85 67 60 82 89 85 85 89 92 94 92 98 96 89 90 89 97 93 92 94 94 96 92 92 92 89 73 84 77 83 82 91 95 99 100 100 102
55 54 56 67 73 87 85 80 67 61 83 80 83 87 85 84 86 87 84 84 81 74 77 85 87 94 95 88 93 91 87 75 72 73 72 86 81 78 95 97 99 99 102 103 103
53 53 64 76 81 81 76 69 56 73 76 88 87 87 81 88 87 86 83 81 86 86 82 76 73 87 93 89 85 87 87 76 63 69 76 87 77 85 99 102 104 104 106 106 103
53 74 76 82 82 79 70 60 64 72 84 83 85 80 81 86 87 85 83 82 86 88 78 78 77 92 92 93 92 87 82 92 82 84 78 83 87 93 98 99 100 101 103 104 104
60 67 75 84 80 73 63 57 71 80 86 84 75 82 77 81 81 82 82 87 86 90 93 85 76 89 91 94 92 89 94 81 84 68 67 78 80 82 89 91 97 99 101 104 106
61 66 76 82 78 65 56 63 70 78 81 79 77 78 81 81 83 81 82 88 91 90 92 89 83 82 89 84 82 84 85 86 87 82 72 70 78 95 92 94 95 99 102 105 106
65 59 78 80 62 65 61 66 66 75 82 79 80 79 79 82 81 82 81 86 94 93 85 89 84 75 81 91 93 90 85 86 80 72 80 79 80 99 99 99 100 101 104 106 107
59 64 80 76 55 61 67 68 73 72 74 76 76 79 81 78 74 81 83 92 91 90 86 88 79 72 74 85 89 83 86 90 89 87 76 74 78 98 99 99 100 100 102 104 106
56 55 66 69 68 62 61 62 62 73 73 74 74 78 76 74 80 76 80 88 90 89 75 84 83 75 72 75 84 79 82 86 87 79 79 79 82 91 94 95 98 99 102 104 104
55 56 63 54 58 56 53 58 54 52 63 69 69 71 72 68 72 74 79 84 88 82 84 85 74 80 82 84 85 84 82 83 81 83 78 82 83 89 94 96 98 100 101 101 101
46 51 57 55 59 55 54 55 56 58 57 54 58 59 68 68 71 69 77 79 79 85 82 85 73 78 76 83 83 81 85 84 84 84 84 85 84 96 98 100 98 99 100 99 101
55 55 53 50 54 53 53 52 52 56 58 61 52 52 60 66 69 73 81 86 84 81 79 78 77 72 68 79 79 72 80 83 85 87 85 78 85 93 93 95 97 97 99 99 100

GFSSW_sfc_temp_024.txt.gz
Temp
62 62 62 62 62 62 63 63 63 63 63 63 63 63 62 62 63 79 85 95 97 80 82 99 97 99 103 99 102 82 67 79 84 87 87 96 92 98 99 94 94 94 90 94 97
62 62 62 61 62 62 62 62 62 62 62 62 62 62 62 62 77 86 95 87 81 81 97 97 95 99 96 97 97 67 63 79 84 93 91 95 94 94 92 91 91 91 95 96 97
61 61 61 61 61 62 62 62 62 62 62 62 62 62 62 66 82 93 82 82 81 85 103 103 103 100 94 98 96 75 64 84 89 94 98 95 95 97 91 86 91 87 90 93 95
61 61 60 61 61 61 61 61 61 61 61 61 62 62 63 76 75 97 81 81 81 97 99 99 99 94 92 91 99 77 87 88 95 100 97 95 98 94 94 92 97 95 93 92 92
60 60 60 60 60 60 61 60 60 60 60 61 62 62 73 81 86 100 81 83 95 96 96 95 95 94 90 94 97 94 88 93 102 100 100 99 95 93 94 98 100 97 93 91 92
60 60 60 60 60 60 60 60 59 60 60 61 62 62 74 75 103 107 100 97 102 97 97 98 97 100 95 95 94 100 99 99 101 100 100 94 95 95 96 100 97 95 92 92 93
59 59 59 59 59 59 59 59 59 59 60 62 64 68 80 84 106 104 105 104 103 101 96 102 103 98 98 93 101 99 93 97 98 99 97 99 89 90 96 99 94 93 92 93 94
59 59 59 59 59 59 58 58 58 60 62 63 65 74 77 102 106 102 107 103 106 107 104 105 105 99 96 100 96 93 94 85 95 98 98 96 79 93 98 96 92 92 92 93 93
59 59 59 58 58 58 57 57 59 62 64 66 69 77 81 97 97 105 106 99 102 104 104 106 102 95 95 88 85 89 81 85 88 98 95 92 76 88 98 96 92 92 92 93 93
58 58 58 58 57 57 56 58 66 65 69 79 82 78 88 91 100 103 106 104 98 98 96 95 93 88 88 84 73 79 83 86 86 93 95 89 77 84 93 95 93 93 93 93 93
58 58 57 57 57 56 59 75 81 74 77 81 86 85 96 100 107 101 104 100 98 94 84 90 82 78 84 87 89 88 87 86 90 91 91 86 73 71 83 93 94 93 93 93 93
58 57 57 57 56 57 63 79 85 85 74 87 88 90 96 104 92 97 105 91 89 82 88 85 77 87 91 90 88 87 85 86 92 90 90 89 82 81 91 93 95 94 93 94 95
57 57 57 56 56 65 82 84 94 92 74 81 89 89 91 97 91 94 99 93 87 83 84 80 85 92 90 87 85 86 84 86 87 92 93 90 85 88 94 95 96 98 98 97 95
57 57 56 55 65 74 78 91 93 93 67 77 88 91 94 95 87 100 103 94 89 83 86 85 92 89 87 85 88 80 91 90 88 85 75 88 73 82 89 90 93 95 97 97 97
57 56 55 54 61 68 84 90 91 86 55 90 91 105 99 90 94 93 102 96 84 86 87 82 86 86 84 86 91 85 93 90 90 85 82 79 74 81 87 84 90 94 97 99 100
56 56 55 65 71 75 84 89 86 65 55 83 90 87 87 90 91 97 93 97 95 87 89 87 96 92 91 93 93 95 90 89 89 86 71 79 75 77 82 80 89 96 98 99 101
55 54 55 64 66 83 83 79 63 58 83 80 84 87 86 84 86 89 85 83 80 73 75 84 86 94 95 88 92 90 84 73 70 72 71 85 77 79 89 92 93 90 91 101 102
53 53 61 71 78 78 76 66 53 70 72 89 89 87 81 86 85 87 83 78 85 84 78 74 71 86 93 88 85 85 84 74 61 67 72 85 76 82 92 95 93 90 91 103 101
53 69 72 80 83 80 68 54 60 68 80 82 85 81 81 85 86 84 83 81 84 86 75 76 75 92 92 94 91 84 78 89 78 81 75 81 85 93 95 93 93 94 99 100 101
58 62 69 82 86 75 60 52 65 75 79 80 72 81 76 82 81 83 81 86 85 89 91 84 74 88 91 94 93 87 92 77 79 64 64 76 77 80 85 81 90 95 97 102 103
58 62 77 86 82 67 53 58 65 73 74 70 68 69 75 80 83 81 83 88 90 90 92 87 82 81 89 83 82 83 80 82 84 79 70 68 76 94 90 91 92 95 98 102 104
61 54 81 82 62 63 58 63 63 68 73 72 74 74 72 75 77 81 82 87 95 93 84 88 82 75 80 91 93 89 83 82 73 70 78 77 79 99 96 96 98 98 100 103 103
54 59 75 76 54 57 63 65 68 68 69 69 69 74 77 74 69 76 80 93 94 92 86 89 79 70 73 84 89 84 86 86 85 83 73 72 76 95 96 92 94 98 100 98 98
52 50 64 70 68 61 58 57 59 69 67 71 67 71 71 70 76 73 76 86 93 93 76 87 82 74 71 75 83 79 83 85 84 75 76 78 81 87 90 90 93 96 99 101 101
54 51 59 50 57 58 55 51 51 52 64 66 62 62 60 56 68 70 76 80 86 85 87 86 73 79 80 83 85 83 83 83 79 80 75 81 82 87 91 91 93 96 99 98 98
43 48 54 52 55 55 53 53 52 55 54 52 55 57 58 54 57 51 58 69 76 86 84 85 72 76 76 82 82 80 84 85 84 83 83 84 82 94 97 98 95 90 95 95 96
56 54 44 45 51 52 54 54 49 53 53 58 56 50 50 53 57 60 64 69 73 75 78 78 76 71 67 78 79 72 80 83 84 86 84 77 84 93 91 91 93 91 96 95 97

GFSSW_sfc_temp_027.txt.gz
Temp
62 62 62 62 62 62 63 63 63 63 63 63 62 62 62 62 62 69 71 83 84 81 81 92 89 90 91 87 82 76 60 60 70 79 78 87 84 91 91 84 85 88 82 82 87
62 62 61 61 62 62 62 62 62 62 62 62 62 62 62 62 64 72 84 85 85 81 87 89 87 88 81 85 74 68 59 69 83 83 80 89 87 87 85 82 83 85 88 88 89
61 61 61 61 61 61 61 62 62 62 62 62 62 62 62 62 64 80 81 85 85 82 94 94 93 91 82 85 76 73 69 80 83 87 89 86 86 90 84 77 82 81 84 87 86
61 60 60 61 61 61 61 61 61 61 61 61 62 62 62 61 65 88 80 81 81 88 91 91 88 81 79 79 82 74 84 87 84 90 88 87 89 86 87 85 89 88 88 88 83
60 60 60 60 60 60 60 60 60 60 60 61 62 62 62 65 74 94 81 81 85 87 87 86 83 82 78 84 85 79 82 90 92 90 89 93 88 87 87 89 91 90 89 86 86
60 60 59 59 60 60 60 60 59 60 60 61 62 62 60 63 91 96 89 86 91 87 86 88 85 89 85 85 84 86 87 90 92 91 92 87 88 87 88 90 88 87 85 86 86
59 59 59 59 59 59 59 59 59 59 60 61 63 65 66 71 94 95 89 87 90 90 85 91 92 86 85 82 91 90 84 88 88 88 88 91 85 84 89 90 85 85 85 86 86
59 59 59 59 59 59 58 58 58 60 61 62 64 65 59 90 90 90 91 92 95 93 91 92 94 87 82 86 87 81 78 71 84 88 90 83 68 87 89 87 83 85 86 86 85
58 58 58 58 58 58 57 58 60 63 64 65 60 60 64 90 84 91 93 90 93 92 91 101 91 82 83 75 69 71 66 71 79 90 87 80 69 85 89 86 83 84 85 85 85
58 58 58 58 58 57 56 58 63 64 65 71 74 63 74 80 91 94 96 96 90 89 88 85 79 74 74 70 60 64 67 73 76 83 86 74 72 85 87 85 83 84 85 85 85
58 58 57 57 57 56 55 56 67 62 68 69 70 75 82 89 96 94 97 91 88 81 72 78 69 67 71 76 77 77 75 74 80 88 83 75 73 79 83 80 81 83 83 84 85
58 57 57 56 56 56 55 60 73 75 65 79 80 81 84 87 82 92 97 83 79 72 76 72 68 76 82 81 79 77 74 74 83 87 80 76 72 77 81 81 82 85 84 85 85
57 57 56 56 56 59 63 67 81 81 63 72 79 79 80 84 79 85 90 86 79 74 75 70 73 84 81 78 77 76 73 74 77 81 83 77 68 71 82 84 85 87 87 87 86
57 57 56 54 59 60 64 78 82 82 53 66 74 80 83 84 78 92 95 87 80 74 76 74 82 81 78 76 79 69 82 82 80 76 67 79 61 66 75 80 82 86 87 87 87
57 56 55 54 52 55 70 74 78 73 42 80 81 93 84 78 82 84 95 88 77 77 75 72 77 76 76 78 83 76 84 82 81 75 68 70 65 67 75 74 80 83 87 89 89
56 56 55 57 59 62 69 73 71 51 45 72 86 79 77 79 81 88 85 89 87 79 79 77 86 83 80 85 85 86 80 79 78 73 58 68 67 67 70 77 78 80 86 90 91
55 54 53 58 53 72 66 65 49 46 73 74 76 81 78 73 77 79 77 74 70 65 65 74 78 84 87 77 82 81 69 61 57 60 57 71 67 68 81 82 85 87 87 90 92
53 53 57 65 66 63 61 53 42 62 63 76 77 80 74 78 77 78 75 71 77 74 65 63 61 77 84 80 71 75 72 62 48 54 60 69 61 70 86 88 90 91 89 89 92
52 59 59 66 72 66 56 44 50 59 69 65 66 67 71 79 78 76 74 73 76 77 65 64 64 82 85 86 83 70 68 75 59 63 57 65 71 79 85 85 86 87 90 91 90
50 53 56 70 74 65 53 45 54 65 64 61 53 63 58 62 64 73 73 79 78 82 81 71 59 78 83 86 83 78 74 65 68 53 53 64 65 65 73 79 81 84 87 88 85
51 51 66 75 74 61 47 49 56 65 66 61 58 57 59 59 63 63 67 80 84 82 83 77 70 70 78 75 73 69 72 66 67 67 56 55 64 73 75 81 80 84 89 89 90
53 43 68 70 53 57 51 56 57 61 66 63 64 61 58 60 58 61 63 70 86 86 76 79 71 63 69 80 85 81 74 67 60 52 59 61 64 82 85 83 86 87 88 90 93
46 49 64 64 44 48 56 58 62 61 61 59 58 62 64 60 55 61 65 76 81 78 78 79 71 59 63 71 79 76 78 75 73 62 60 54 64 85 85 83 84 83 87 89 86
45 41 54 57 58 52 49 46 46 57 56 59 56 57 54 55 60 56 59 72 77 79 75 74 75 68 61 65 68 68 75 77 73 63 62 66 66 73 76 79 81 87 90 92 85
44 43 51 41 46 46 48 45 44 46 56 56 51 50 48 44 47 51 55 55 61 64 68 66 64 72 73 75 75 75 75 77 72 73 62 68 68 73 78 79 79 84 84 91 87
40 41 46 43 46 46 47 48 50 48 49 47 46 47 45 42 45 44 48 47 47 57 53 58 57 70 67 76 76 73 77 78 78 77 74 72 70 73 78 82 82 81 89 85 83
51 49 42 40 43 43 44 47 46 49 48 51 50 48 43 48 56 55 55 54 53 50 51 53 52 56 58 68 70 65 73 75 75 79 76 69 75 77 76 77 80 80 81 91 85

GFSSW_sfc_temp_030.txt.gz
Temp
62 62 61 61 62 62 62 62 62 63 63 63 62 62 62 62 61 63 66 78 77 80 82 82 82 85 85 79 76 76 63 62 67 73 73 82 77 83 86 78 80 82 77 79 83
61 61 61 61 61 61 62 62 62 62 62 62 62 62 62 62 58 63 80 82 81 80 84 81 79 81 74 77 73 66 64 70 76 78 74 83 80 80 78 76 77 78 81 82 83
61 61 61 61 61 61 61 61 61 61 61 61 61 62 62 61 60 74 82 82 82 81 88 88 86 83 74 77 73 71 68 75 81 83 81 82 79 83 76 72 77 74 76 80 80
61 61 60 60 61 61 61 61 61 61 61 61 61 62 62 57 62 83 81 79 82 85 85 84 82 75 73 72 78 70 79 83 83 86 84 81 83 79 80 80 84 82 81 80 79
60 60 60 60 60 60 60 60 60 60 60 61 62 62 59 59 68 88 83 81 83 83 82 80 77 75 72 75 77 73 79 85 88 86 86 87 83 80 81 85 86 84 82 80 80
60 59 59 59 60 60 60 59 59 59 60 61 62 62 56 59 84 89 86 83 85 81 80 81 79 80 76 77 76 80 82 84 87 87 88 83 83 82 82 87 84 83 80 81 80
59 59 59 59 59 59 59 59 59 59 60 61 62 62 58 68 86 84 84 80 82 82 79 83 85 77 77 76 83 83 76 81 84 85 84 86 76 77 83 85 83 83 82 81 81
59 59 59 59 59 59 58 58 58 60 61 62 63 60 52 80 81 83 84 83 85 83 83 86 86 81 75 79 80 72 69 63 79 84 87 81 67 79 83 82 80 82 83 82 80
59 59 58 58 58 58 57 57 59 63 65 63 57 54 57 80 74 82 83 83 84 82 82 94 83 76 76 69 63 63 59 65 72 82 83 75 65 79 83 81 78 80 82 82 81
58 58 58 58 57 57 56 58 59 62 65 68 70 57 67 75 81 85 84 88 82 82 80 79 73 68 63 61 54 58 59 64 68 76 82 71 69 79 81 79 78 79 80 81 82
58 58 57 57 57 56 54 48 60 59 60 62 63 66 75 81 86 87 88 84 81 74 68 71 63 63 65 67 70 68 66 65 73 79 75 73 75 76 79 79 78 78 79 80 82
58 57 57 56 56 56 51 54 59 65 55 72 74 74 77 77 74 80 87 77 72 66 68 64 62 69 74 73 72 70 68 68 72 79 74 71 75 78 79 79 79 79 79 80 82
57 57 56 56 55 55 53 58 68 66 54 65 73 73 74 76 70 74 80 77 72 66 69 64 67 77 74 72 70 70 67 69 68 75 76 72 67 69 77 80 81 82 83 83 82
57 57 56 54 53 51 55 65 67 67 47 58 64 72 75 77 68 84 84 82 72 69 68 67 75 74 72 70 72 61 76 76 73 67 62 73 55 65 72 74 77 80 81 82 83
57 56 55 54 45 47 61 63 65 59 41 72 71 82 74 72 75 78 87 78 71 71 68 65 71 71 70 72 76 68 77 74 73 65 61 63 57 60 69 68 71 77 81 83 85
56 56 55 50 47 53 59 59 56 49 41 63 77 70 68 69 74 82 79 79 79 74 72 72 78 76 75 79 78 80 72 70 65 63 53 65 64 58 69 71 76 79 82 85 85
55 54 53 56 44 56 56 54 45 39 64 66 60 65 66 64 70 73 74 70 67 58 62 68 72 75 79 70 74 73 59 51 52 53 52 61 58 67 75 78 81 82 82 86 87
53 52 52 57 51 53 53 47 36 54 56 64 60 66 64 66 67 69 66 67 72 62 59 58 56 71 77 73 68 64 67 55 44 45 51 60 55 67 79 83 85 87 87 88 87
52 48 51 51 60 55 44 34 40 50 56 55 56 56 56 65 61 64 67 66 72 70 58 54 59 73 79 79 77 65 60 69 53 48 50 56 62 71 77 78 84 86 86 86 88
47 41 46 58 59 51 39 38 45 56 58 57 47 55 47 52 54 54 55 70 72 75 72 64 53 69 77 79 78 74 69 57 49 50 49 53 57 63 68 74 77 83 85 87 88
44 38 52 59 57 45 36 39 51 59 60 53 50 48 51 51 53 52 54 65 71 73 77 73 60 63 67 68 67 68 64 56 61 58 54 47 60 69 71 72 76 82 86 87 88
39 33 53 61 38 40 41 46 52 56 60 56 57 55 52 50 49 52 54 60 70 68 61 68 65 59 65 72 76 76 70 62 60 50 52 62 63 75 76 76 78 82 86 89 91
37 36 52 50 32 36 43 48 52 52 52 52 51 53 52 47 41 52 54 66 59 59 55 58 58 55 56 66 72 65 70 73 55 54 59 52 58 74 73 74 77 78 81 84 82
36 32 39 43 49 39 38 41 42 53 53 55 51 51 47 43 46 44 49 56 58 58 61 56 52 56 58 60 65 60 70 69 69 62 59 61 58 67 68 73 74 79 83 83 83
37 33 37 32 38 41 42 41 40 40 50 50 45 47 41 35 40 43 48 49 55 59 54 47 41 51 58 68 72 69 69 71 67 71 64 67 63 67 70 74 74 79 83 84 87
38 36 42 38 37 38 41 39 38 38 43 43 43 45 45 36 41 39 43 44 43 50 47 46 41 47 51 65 71 69 72 72 73 73 71 63 63 72 77 73 76 77 80 81 80
46 46 41 37 33 33 34 40 41 42 44 48 46 43 42 45 50 50 47 50 48 45 45 41 41 42 42 59 67 62 70 70 70 74 73 64 68 70 71 74 74 74 76 82 81

GFSSW_sfc_temp_033.txt.gz
Temp
62 61 61 61 61 61 62 62 62 62 62 62 62 62 62 61 61 61 64 76 72 80 81 80 81 81 80 74 76 74 58 59 66 68 69 78 74 81 82 75 78 79 74 76 79
61 61 61 61 61 61 61 61 61 62 62 61 61 62 62 61 56 58 76 79 80 80 78 74 73 77 70 72 72 64 56 67 75 77 73 77 76 76 74 73 75 75 78 79 79
61 61 61 61 61 61 61 61 61 61 61 61 61 61 62 60 58 71 81 80 81 80 83 82 80 78 69 70 70 68 63 74 78 80 80 78 76 80 73 69 73 70 72 76 77
61 60 60 60 61 61 61 61 60 60 60 61 61 62 62 55 61 79 80 79 80 83 83 80 77 70 68 69 75 66 75 77 82 81 80 77 80 76 76 76 80 77 77 76 75
60 60 60 60 60 60 60 60 60 60 60 61 61 62 57 56 66 84 82 80 80 81 80 77 73 71 68 70 74 71 78 80 85 84 82 82 77 76 76 81 82 79 78 76 76
60 60 59 59 60 60 60 59 59 59 60 61 61 62 53 57 81 82 81 79 80 78 77 77 75 76 72 72 72 77 80 80 83 83 85 77 78 78 78 83 79 77 76 76 76
60 59 59 59 59 59 59 59 59 59 60 61 62 60 55 65 82 80 78 77 79 78 74 78 81 78 74 70 78 78 74 76 78 77 81 83 75 73 81 81 77 76 76 77 77
59 59 59 59 59 59 58 58 58 60 61 63 62 58 53 75 74 78 79 76 80 77 78 80 81 75 70 74 75 69 66 61 74 76 81 81 67 78 80 78 75 76 76 77 77
59 58 58 58 58 58 57 57 59 62 63 63 57 52 56 76 70 75 78 79 78 74 74 90 78 70 70 65 59 60 56 62 68 78 78 75 64 76 80 78 75 75 76 77 77
58 58 58 58 57 56 56 57 59 60 63 65 66 54 63 70 76 80 77 83 77 76 75 74 70 62 58 58 51 56 57 61 64 72 74 69 66 75 78 77 76 76 76 77 76
58 57 57 57 56 56 53 51 57 55 57 59 60 63 69 77 81 81 81 78 76 70 62 66 60 56 62 63 66 65 62 62 67 74 70 67 68 72 76 76 76 76 77 76 77
58 57 57 56 56 55 51 54 57 55 47 64 64 67 74 72 70 76 82 72 69 63 65 60 59 65 69 68 67 65 63 64 67 74 69 69 68 73 75 75 76 77 77 78 78
57 57 56 55 55 53 50 54 61 54 46 59 67 67 69 72 66 70 76 72 67 62 63 62 62 71 69 66 65 61 61 65 65 68 70 67 61 67 74 76 78 79 80 80 80
57 56 56 54 52 48 53 58 59 58 44 56 61 67 69 70 63 79 79 76 68 65 64 61 71 70 65 65 66 55 69 70 68 62 56 67 51 60 70 71 74 76 77 79 80
56 56 55 54 44 44 57 58 59 53 39 68 65 76 68 68 69 70 81 74 67 66 66 61 65 67 64 68 69 65 72 69 66 60 54 60 54 58 68 67 71 75 77 79 81
56 55 54 49 44 50 55 54 52 47 38 61 70 64 62 65 69 73 73 74 76 68 67 70 72 73 69 73 74 72 67 63 59 56 49 63 58 60 64 69 73 76 79 80 81
54 53 52 54 43 51 52 51 43 37 60 58 54 59 57 59 65 69 67 64 62 55 58 63 68 69 74 65 67 66 56 47 45 45 49 60 55 65 69 77 79 77 79 82 83
53 52 51 55 50 49 47 43 33 51 51 58 57 59 57 58 58 60 65 63 68 60 59 53 51 67 71 67 63 60 61 44 39 41 49 55 52 63 76 78 82 85 84 83 83
52 46 43 48 55 49 41 32 38 45 54 52 54 52 48 55 56 55 52 64 68 65 57 54 55 69 74 73 72 60 58 64 48 43 45 51 59 66 74 75 76 78 81 82 83
45 41 40 53 54 46 37 34 40 53 55 53 44 50 43 48 50 50 51 59 59 69 62 59 51 64 71 73 71 68 64 54 44 45 44 48 53 58 65 73 72 77 78 82 85
40 36 48 53 49 40 31 33 45 55 56 50 47 45 45 46 48 47 50 58 60 59 61 54 53 57 65 61 65 59 58 53 56 49 48 42 55 65 68 72 72 75 80 84 85
36 31 51 52 36 34 34 41 50 52 56 52 52 50 47 47 44 46 49 54 59 58 49 53 47 55 61 66 74 70 63 55 50 49 49 59 57 69 76 74 74 75 79 84 87
34 33 47 46 32 32 42 45 48 47 47 49 48 50 48 43 40 46 49 59 57 54 48 50 42 43 50 54 60 61 65 68 65 51 57 51 53 69 73 72 73 73 75 80 84
36 32 36 41 41 37 34 39 38 47 47 49 48 47 43 40 43 42 45 54 56 56 59 50 40 42 45 50 58 57 63 66 64 56 60 60 56 60 66 69 73 71 74 76 80
40 33 35 29 33 34 38 38 36 37 44 46 41 43 40 32 36 39 45 46 53 55 50 44 35 42 48 53 56 59 65 68 61 65 60 64 61 66 67 69 71 74 73 75 77
38 37 41 37 40 32 36 38 37 38 38 39 38 43 41 35 38 36 40 39 41 47 44 42 37 41 44 56 58 58 64 68 69 69 65 64 59 68 75 69 70 75 74 73 76
44 45 40 37 38 34 32 35 38 41 43 44 43 40 38 42 44 45 45 44 44 41 39 38 37 37 34 49 51 52 61 66 69 71 69 63 64 69 69 68 70 71 72 75 76

GFSSW_sfc_temp_036.txt.gz
Temp
62 62 61 61 61 62 62 62 62 62 62 62 62 62 62 61 60 58 61 74 71 79 80 78 77 79 78 72 75 73 58 56 64 66 68 75 72 77 78 73 75 76 72 74 75
61 61 61 61 61 61 61 61 61 61 61 61 61 61 62 61 55 55 75 78 78 80 77 73 71 75 67 70 70 63 55 62 71 73 68 75 74 73 71 71 72 72 75 75 75
61 61 61 61 61 61 61 61 61 61 61 61 61 61 61 60 55 70 81 79 79 80 80 78 78 74 65 68 68 65 60 68 76 77 76 75 73 77 72 66 71 67 69 73 72
61 61 60 60 61 61 61 61 61 60 60 60 61 61 61 55 59 74 80 78 80 81 78 76 74 67 64 64 70 62 70 73 75 79 75 74 76 74 74 73 78 74 74 73 70
60 60 60 60 60 60 60 60 60 60 60 60 61 61 55 53 63 78 80 79 79 78 76 73 69 67 64 66 70 66 73 76 79 77 77 78 75 75 73 79 78 76 74 72 71
60 59 59 59 60 60 60 59 59 59 60 60 61 61 51 53 77 78 77 77 76 75 75 74 72 73 68 69 68 73 74 77 78 79 79 75 75 75 75 78 75 74 72 73 73
59 59 59 59 59 59 59 59 58 59 59 61 61 59 52 63 78 76 74 72 77 76 72 76 76 75 70 67 74 74 68 72 74 76 75 78 69 71 77 77 73 72 73 73 74
59 59 59 59 59 59 58 57 58 60 61 62 62 56 53 72 71 71 75 71 78 74 73 77 77 72 68 70 71 65 63 59 68 74 77 74 63 75 78 75 71 73 73 73 74
58 58 58 58 58 57 57 57 60 64 64 63 54 51 56 73 68 71 75 74 73 71 71 87 76 66 66 62 57 57 53 59 66 74 74 71 63 75 77 75 72 72 73 74 73
58 58 58 57 57 56 56 58 59 61 62 63 63 53 62 68 72 75 73 79 72 72 71 69 65 59 55 56 51 53 53 57 63 69 70 66 66 70 75 75 73 72 73 73 73
58 57 57 57 56 56 53 52 53 52 52 55 56 59 66 72 75 76 76 75 72 66 59 62 56 54 57 59 62 62 59 60 64 70 68 65 64 67 73 74 73 72 72 73 74
57 57 57 56 55 55 51 53 52 51 44 59 58 62 69 67 67 72 78 69 66 59 62 56 56 62 66 64 64 62 59 60 64 72 66 65 66 69 72 73 74 74 73 73 75
57 57 56 55 55 50 47 52 56 50 41 54 59 62 64 66 63 66 74 68 63 59 62 61 59 67 66 61 61 57 59 59 60 67 66 63 59 63 71 72 75 76 76 77 76
56 56 55 54 50 45 50 51 53 52 40 52 57 64 66 65 60 74 78 72 64 64 59 58 68 67 61 62 63 50 64 67 65 59 54 63 50 57 66 68 72 74 75 76 77
56 56 55 53 43 42 54 53 54 48 37 64 59 72 65 63 64 65 76 69 63 62 62 59 62 63 62 65 66 61 69 65 64 58 52 56 52 56 63 63 68 72 75 78 80
56 55 54 48 43 46 50 50 47 43 35 58 64 59 59 61 64 69 68 70 72 65 62 64 68 69 66 69 69 69 63 58 54 52 46 56 56 52 56 65 69 73 76 78 80
54 53 51 52 43 49 48 46 40 35 56 53 51 55 55 54 60 63 62 62 60 51 54 60 64 64 69 62 63 64 54 42 41 42 49 54 53 63 64 72 74 74 76 78 80
53 51 49 52 50 48 43 42 30 47 46 55 54 55 51 53 52 55 58 59 61 58 55 53 49 64 67 64 59 58 53 42 37 38 47 51 50 58 71 75 77 80 80 81 80
52 43 42 47 53 46 40 30 34 41 51 49 50 47 46 52 52 52 50 58 62 57 53 51 52 65 69 68 70 54 54 59 46 40 43 48 55 66 69 71 74 77 79 79 80
43 43 40 51 50 44 36 32 37 49 52 50 41 47 41 45 47 47 48 51 52 59 55 54 48 61 69 70 68 62 62 51 42 39 37 44 48 55 61 68 71 71 76 80 81
38 34 47 51 47 38 28 31 41 50 52 46 43 43 42 43 44 45 47 50 54 54 55 47 50 53 61 60 62 55 55 49 54 45 43 39 48 60 64 70 75 77 76 78 80
35 30 48 48 34 32 36 40 45 44 49 48 49 46 43 45 43 44 44 48 57 54 45 46 41 48 53 60 69 70 59 52 47 44 47 44 51 65 70 72 72 76 80 77 79
35 37 44 45 27 28 35 41 45 41 41 43 44 46 45 41 38 44 47 54 55 52 46 48 40 40 47 57 58 57 61 62 59 48 50 47 51 69 66 70 72 70 72 73 75
34 32 35 43 34 32 30 33 37 47 43 43 45 45 41 38 41 39 43 51 54 54 58 50 37 39 39 43 48 48 57 60 62 56 56 57 56 60 65 67 69 69 71 73 72
36 33 39 28 32 37 33 35 36 35 43 42 39 40 37 31 35 36 43 44 50 53 48 43 37 38 43 48 51 52 54 57 56 61 56 61 60 62 64 67 71 70 69 71 73
37 37 40 35 38 37 38 32 35 38 37 37 36 37 39 32 35 32 37 35 38 44 42 40 37 38 40 51 52 49 54 57 59 60 60 63 58 67 72 67 68 70 71 71 71
44 45 40 36 34 34 34 36 37 38 42 43 40 37 38 41 42 43 42 42 41 37 37 36 35 35 34 45 46 45 55 59 59 62 62 57 63 68 66 66 69 70 69 71 71

GFSSW_sfc_temp_039.txt.gz
Temp
62 62 62 61 62 62 62 62 62 62 62 62 62 62 62 62 61 64 69 82 78 78 81 82 83 83 84 79 80 78 71 72 72 71 75 81 77 82 84 78 79 80 79 81 80
62 62 61 61 61 62 62 62 62 62 62 62 61 61 61 62 61 65 80 78 78 79 82 79 77 80 77 77 78 74 72 73 80 81 79 81 81 79 78 77 77 77 81 80 79
62 61 61 61 61 61 61 61 61 61 61 61 61 61 61 62 65 80 81 78 78 82 86 85 83 81 75 77 76 74 71 77 82 84 84 82 81 84 78 74 79 75 75 77 78
61 61 60 61 61 61 61 61 61 61 61 61 61 61 61 60 69 83 79 78 79 87 84 82 80 75 73 72 77 70 76 79 83 86 83 81 84 80 80 81 87 82 80 78 77
60 60 60 60 60 60 60 60 60 60 60 60 61 61 60 63 71 84 79 80 82 84 82 80 75 76 73 75 75 72 77 80 83 85 85 86 82 81 80 85 86 82 79 78 79
60 60 59 59 60 60 60 60 59 59 60 60 61 61 59 62 85 85 82 81 82 82 82 82 79 81 78 77 76 80 79 81 85 86 86 82 82 82 84 83 80 79 78 79 79
59 59 59 59 59 59 59 59 58 59 60 60 61 60 57 71 84 82 82 82 84 84 79 85 84 81 81 77 83 81 76 82 84 85 84 85 75 77 83 82 78 78 78 79 80
59 59 59 59 59 59 58 57 59 62 61 61 62 61 63 78 81 79 81 79 82 87 86 87 86 84 80 82 80 77 78 73 82 83 85 84 75 82 85 80 77 77 78 78 79
58 58 58 58 58 57 57 57 60 64 64 63 59 58 66 76 75 83 84 79 79 82 86 87 85 79 79 73 72 73 71 71 77 84 81 81 77 86 85 82 78 78 78 78 79
58 57 57 57 57 56 56 58 61 64 64 66 64 58 70 74 78 78 83 82 76 78 79 79 77 73 73 71 62 67 68 72 73 80 81 78 79 82 84 82 80 79 79 79 79
57 57 57 57 56 55 57 65 63 61 60 63 64 64 70 80 83 77 82 81 80 76 68 75 69 64 69 72 74 73 71 72 78 82 80 78 79 84 83 83 81 80 79 80 80
57 57 57 56 55 55 60 60 55 56 48 63 60 64 70 73 72 76 84 75 73 67 71 67 64 73 74 72 71 71 70 72 77 79 78 78 78 82 82 81 82 81 79 80 82
57 56 56 55 54 57 55 57 61 59 49 60 63 65 69 72 68 74 80 78 72 69 68 67 72 75 71 69 68 70 69 72 72 76 79 76 75 76 79 82 83 84 83 83 82
57 56 55 54 56 54 58 58 60 58 50 60 62 68 70 73 67 80 82 80 74 69 70 70 77 71 70 68 70 65 74 74 72 70 67 78 66 71 78 76 79 82 82 84 84
56 56 54 53 51 52 59 60 60 55 47 66 65 78 73 71 73 71 83 79 73 72 71 68 70 68 67 69 73 69 76 73 73 71 71 71 67 75 74 73 77 81 83 85 87
56 55 54 54 52 55 58 57 57 51 44 62 67 66 64 69 71 72 74 82 81 73 75 75 77 75 73 75 75 78 74 72 71 71 60 69 68 71 74 75 80 82 84 85 87
54 53 53 56 54 61 57 56 50 43 61 55 57 61 61 62 66 68 67 68 68 62 63 70 70 76 78 71 75 75 70 59 57 57 57 74 67 70 81 83 87 84 84 86 87
52 51 53 56 59 56 56 53 40 50 49 58 58 59 57 60 62 63 65 64 73 73 68 62 58 71 76 74 69 70 71 62 52 57 63 69 62 71 83 88 88 90 90 89 87
51 54 55 59 60 57 53 42 44 46 49 48 55 52 53 57 57 59 62 65 71 73 66 63 64 75 76 78 77 69 65 76 66 61 61 68 72 78 81 84 86 86 87 88 88
50 48 53 59 58 57 49 39 43 50 50 52 45 51 47 51 54 56 58 56 61 62 64 68 61 73 75 79 78 73 77 62 66 54 53 63 64 70 75 79 84 86 86 88 90
49 47 59 59 58 53 41 40 44 51 51 49 47 47 49 48 52 52 51 55 58 59 62 63 65 64 73 70 69 68 68 70 71 66 59 59 66 78 78 82 83 86 88 91 91
45 43 58 57 46 45 41 42 46 48 51 49 51 51 49 50 50 50 49 52 60 60 54 58 63 62 65 77 81 76 71 71 62 57 64 66 68 81 83 85 87 88 91 92 92
39 42 56 58 36 38 42 42 47 46 45 45 45 49 51 49 46 50 51 57 59 59 54 59 56 57 61 69 72 70 74 74 74 73 61 59 66 84 81 82 85 85 87 87 85
44 40 48 49 46 38 36 39 40 49 44 44 42 48 46 47 50 46 49 54 57 59 58 59 55 56 59 61 60 58 66 72 72 65 65 65 70 77 81 81 83 84 86 87 85
44 41 42 37 41 40 41 39 38 39 45 45 36 37 37 39 44 45 48 50 55 55 57 56 50 52 55 56 57 57 59 62 63 68 65 69 70 75 79 82 84 88 86 84 84
41 40 41 37 39 40 41 39 37 40 41 40 38 38 37 36 40 40 44 46 46 53 52 54 50 51 51 57 58 56 60 61 62 64 65 68 68 80 84 84 85 86 87 84 84
48 48 40 39 38 38 40 40 40 43 44 44 39 39 37 40 47 50 52 52 51 47 47 48 50 48 46 54 55 52 60 62 64 68 68 62 71 79 78 79 80 82 85 84 86

GFSSW_sfc_temp_042.txt.gz
Temp
62 62 62 62 62 62 62 62 62 62 63 62 62 62 62 62 62 72 78 88 87 78 82 92 92 91 92 89 89 87 82 82 82 82 84 90 86 90 92 86 86 88 87 88 89
62 62 62 61 62 62 62 62 62 62 62 62 62 62 62 62 73 79 88 82 80 79 91 88 86 89 86 88 88 84 83 83 89 90 89 89 88 88 86 84 84 85 91 89 89
61 61 61 61 61 61 61 62 62 61 61 62 62 62 62 66 76 89 83 80 79 82 97 95 94 89 86 90 87 87 80 88 90 92 92 91 89 91 87 82 87 83 84 86 87
61 61 61 61 61 61 61 61 61 61 61 61 61 62 62 73 74 93 80 79 79 93 96 92 91 85 85 83 90 81 88 89 92 93 92 90 94 88 88 89 94 91 88 87 86
60 60 60 60 60 60 61 60 60 60 60 61 61 62 68 73 80 95 79 80 88 93 92 89 86 87 83 88 88 83 88 89 92 93 93 93 90 89 89 93 96 92 88 87 87
60 59 59 59 59 60 60 59 59 59 60 61 62 62 70 68 95 96 92 89 91 93 92 93 89 92 88 87 86 90 89 90 92 93 94 90 90 91 92 94 91 89 87 88 88
59 59 59 59 59 59 59 58 59 59 61 62 62 67 68 78 93 95 93 93 95 95 91 95 96 90 90 85 91 90 82 88 91 93 91 93 86 86 94 91 89 88 88 88 89
59 59 59 59 59 59 58 57 58 62 63 62 63 69 71 90 94 89 94 92 96 97 97 98 95 92 89 91 87 84 86 80 91 93 93 91 82 90 94 90 88 88 87 88 88
58 58 58 58 58 57 56 57 61 64 63 63 67 70 75 79 82 91 93 87 91 93 95 96 93 87 88 80 81 84 78 81 85 93 92 89 84 94 94 92 89 88 88 88 88
58 58 58 57 57 56 55 59 63 65 70 72 74 65 77 80 88 90 93 92 86 86 84 84 83 80 82 79 70 77 78 84 82 89 90 86 86 92 94 92 90 89 88 88 88
58 57 57 57 56 55 62 77 73 69 73 73 77 77 79 87 89 87 91 88 87 82 76 81 75 72 79 81 83 84 82 80 86 91 87 86 87 90 94 92 91 90 88 89 89
57 57 57 56 55 55 71 69 61 61 56 73 73 76 83 82 79 84 92 82 79 74 82 77 71 81 84 84 81 81 79 80 86 88 86 86 85 91 94 92 92 92 89 90 91
57 57 56 55 55 65 68 64 71 70 59 71 76 76 77 81 78 81 86 86 79 76 78 75 79 84 81 79 76 77 77 79 80 86 88 85 82 86 92 94 94 96 95 93 92
57 56 55 53 63 68 68 72 72 70 57 71 70 74 79 82 75 89 89 87 81 76 79 78 85 80 79 77 78 73 83 82 81 78 74 86 72 84 90 90 91 94 95 94 94
57 56 54 52 64 65 67 72 71 66 51 74 72 84 81 78 85 81 90 86 79 79 80 74 78 78 76 77 82 77 86 81 80 78 78 79 75 82 89 86 89 93 95 95 96
56 55 53 64 70 71 73 71 67 54 50 68 73 71 71 75 79 82 81 88 87 81 82 81 87 85 82 83 84 84 81 80 79 78 68 77 77 78 84 85 90 94 96 95 97
54 53 57 67 64 73 72 67 54 51 69 62 64 69 71 72 73 75 73 73 72 67 69 76 79 84 85 79 83 81 76 66 64 65 65 81 76 79 89 94 94 95 96 97 97
52 51 61 69 73 71 68 59 45 58 56 63 62 65 64 71 71 74 72 70 76 78 75 68 65 79 84 80 77 76 77 70 58 64 70 80 71 79 92 96 96 98 101 100 98
52 70 71 72 72 70 62 50 53 51 54 54 61 60 65 66 66 70 71 72 76 80 71 71 71 84 84 85 84 76 73 84 76 76 71 79 80 88 92 93 94 96 98 100 99
62 65 68 74 73 67 57 46 52 56 56 57 51 57 55 59 61 66 70 67 73 81 80 77 70 82 83 85 86 83 84 72 76 61 60 73 74 77 83 86 92 94 98 100 101
64 60 68 74 72 63 51 49 52 58 58 52 52 53 56 56 60 62 63 63 68 73 72 76 76 76 81 76 76 77 76 78 80 76 67 66 75 90 87 89 90 95 98 100 101
62 54 69 71 58 58 50 50 49 55 58 55 56 54 54 57 57 59 58 61 66 68 65 75 75 70 74 84 87 84 78 79 70 66 73 74 78 92 92 95 95 96 98 102 103
55 57 70 68 48 48 52 52 53 52 48 48 48 53 55 53 51 57 58 62 65 66 64 71 69 65 69 78 82 78 80 83 82 81 69 68 75 90 90 90 93 95 98 99 100
56 50 61 62 59 48 45 47 47 54 49 51 40 51 50 52 58 53 56 61 64 64 59 64 69 68 67 70 77 72 78 80 80 72 74 74 78 84 87 88 91 93 95 97 97
57 50 51 45 48 48 45 48 44 41 50 53 42 38 38 44 53 52 56 59 62 62 65 66 62 63 70 66 67 74 76 78 76 77 72 78 78 83 88 90 91 93 94 94 94
51 47 51 48 48 44 46 43 44 44 45 46 39 41 42 36 39 43 50 55 56 61 61 64 58 60 60 66 65 64 70 73 77 79 78 79 79 90 92 91 91 92 92 93 95
58 56 46 45 46 43 46 44 45 47 50 50 50 48 46 44 46 53 58 59 59 55 56 57 59 56 56 66 65 59 67 70 73 76 76 71 79 86 85 85 87 88 91 92 94

GFSSW_sfc_temp_045.txt.gz
Temp
62 62 62 62 62 62 62 62 63 63 63 63 63 62 62 62 62 74 79 91 91 79 82 95 96 97 98 94 97 96 82 70 77 75 89 96 92 97 99 91 92 93 90 89 88
62 62 62 62 62 62 62 62 62 62 62 62 62 62 62 62 74 83 91 85 81 80 91 93 91 95 91 92 95 89 79 65 95 88 87 95 95 93 92 89 88 92 93 91 89
61 61 61 61 61 62 62 62 62 61 61 61 62 62 62 66 79 91 82 84 81 84 99 100 98 95 89 95 94 92 84 71 95 97 97 96 94 96 92 87 91 87 88 89 90
61 61 61 61 61 61 61 61 61 61 61 61 61 62 62 74 75 94 82 81 81 95 97 97 95 90 88 88 96 88 94 92 94 98 97 92 96 94 93 94 97 95 93 91 91
60 60 60 60 60 61 61 60 60 60 60 61 61 62 67 77 84 96 79 81 90 92 94 94 91 91 86 92 94 90 91 96 97 97 98 97 93 93 94 98 100 97 93 91 92
60 60 60 60 60 60 60 59 59 59 60 61 62 63 72 72 101 104 99 91 94 93 95 97 93 97 92 93 93 96 94 96 98 98 98 95 95 95 96 99 97 94 92 93 93
59 59 59 59 59 60 59 59 59 60 61 62 63 69 77 81 101 102 100 96 99 98 96 100 101 95 95 91 99 97 89 93 95 97 95 98 89 91 98 98 95 93 92 93 93
59 59 59 59 59 59 58 57 59 62 63 63 63 72 75 98 100 98 101 98 101 102 102 103 103 97 95 97 93 89 90 83 93 96 97 96 82 95 100 96 93 92 92 92 93
59 59 59 59 58 58 57 57 61 64 63 64 70 75 79 84 89 97 100 94 98 100 101 103 99 92 93 86 84 86 79 82 88 97 96 93 82 69 100 96 93 93 93 92 92
58 58 58 58 57 57 56 58 66 63 70 77 80 72 81 85 95 96 100 99 94 94 92 91 90 84 86 83 72 79 80 86 84 94 94 91 90 87 98 97 95 94 93 92 93
58 58 57 57 57 55 63 86 77 72 77 76 80 80 88 95 97 93 97 94 94 89 80 86 79 75 81 85 86 88 86 85 90 96 91 89 88 90 96 97 96 95 93 93 94
58 57 57 57 56 55 72 74 69 70 61 76 79 81 88 92 85 90 97 86 84 78 83 80 75 84 88 88 85 85 85 86 91 95 92 89 88 93 95 96 97 97 94 94 95
57 57 56 55 55 69 77 74 81 79 63 73 83 82 84 88 83 87 91 89 83 80 80 79 82 87 86 85 82 83 82 85 85 91 94 89 85 88 96 99 99 100 98 97 95
57 57 56 54 62 78 76 80 82 79 58 73 79 84 88 87 79 94 94 89 84 79 82 83 90 85 84 82 85 78 88 88 86 85 78 89 74 85 92 93 95 98 99 98 97
57 56 55 52 70 73 75 82 81 75 50 81 79 90 89 81 88 85 96 90 83 82 84 79 84 83 80 82 87 82 90 86 86 83 83 83 79 85 91 88 93 97 100 101 100
56 55 54 71 77 80 82 82 77 56 50 74 79 76 77 81 84 90 87 91 91 85 86 85 93 90 87 89 89 90 86 86 85 82 71 79 81 82 88 90 95 98 100 101 102
55 53 57 72 71 82 81 74 56 49 75 66 67 75 77 77 77 84 79 76 75 70 73 81 84 89 91 84 89 86 81 70 67 69 68 83 79 82 93 97 98 98 100 102 103
53 52 65 78 82 81 75 62 45 60 61 66 65 66 64 73 78 80 77 74 79 81 78 73 69 84 89 86 82 81 81 71 60 66 72 82 74 82 96 100 103 103 104 104 103
52 80 79 80 81 79 67 53 55 57 59 58 61 63 67 73 74 77 75 76 79 82 73 75 74 88 89 90 89 81 77 88 79 82 77 81 84 92 97 97 99 99 102 103 103
64 74 78 81 82 75 62 51 55 61 61 61 52 60 56 64 68 71 74 80 80 84 87 82 73 86 88 91 89 87 89 75 79 66 66 77 79 81 87 91 96 97 99 102 104
67 68 76 81 80 68 55 55 58 63 64 57 54 54 54 51 57 66 72 74 77 82 86 84 80 80 87 81 79 81 81 82 84 80 71 70 78 94 92 93 94 98 100 102 105
69 60 77 79 62 68 56 58 54 61 63 59 58 57 55 57 53 57 63 67 71 74 72 83 79 72 80 88 90 88 83 82 74 71 79 80 81 97 99 98 98 97 101 104 106
61 66 79 75 54 55 59 57 58 51 56 55 52 52 57 52 45 51 58 68 70 72 69 78 73 67 73 83 86 81 85 88 85 85 74 73 79 94 95 95 99 98 101 102 104
61 55 66 68 66 56 53 52 51 59 56 57 54 55 52 53 56 51 52 63 68 70 62 66 72 70 71 76 82 75 81 85 86 77 78 79 82 86 90 92 93 97 101 102 102
57 55 58 52 56 55 54 53 48 45 55 59 50 49 46 44 51 41 49 59 69 66 71 71 63 71 77 82 81 81 80 83 80 82 76 83 82 88 91 91 94 97 97 97 98
45 46 54 50 52 51 49 50 49 50 52 51 47 50 49 44 45 35 45 53 55 64 66 70 61 69 70 79 74 73 81 82 84 83 84 85 85 95 97 97 94 94 95 95 96
49 51 46 45 48 45 49 50 50 53 55 55 54 53 50 50 57 58 59 61 61 58 58 61 64 64 60 72 71 65 75 79 83 86 85 79 86 94 92 92 91 92 93 94 96

GFSSW_sfc_temp_051.txt.gz
Temp
62 62 62 62 62 62 62 63 63 62 63 62 62 62 62 62 62 64 59 74 76 80 80 85 86 85 85 79 84 86 62 58 67 70 73 82 82 87 90 81 82 80 77 78 81
62 62 62 61 62 62 62 62 62 62 62 62 62 62 62 62 58 60 75 80 81 81 81 81 80 82 77 78 80 76 64 66 79 78 75 82 81 82 82 79 74 75 80 82 82
61 61 61 61 61 62 62 62 62 61 61 61 61 62 62 62 58 70 83 78 82 82 84 84 86 83 75 80 79 78 70 77 80 84 83 78 78 85 82 72 75 71 76 81 80
61 61 60 60 61 61 61 61 61 61 61 61 61 62 62 60 60 86 84 81 81 85 84 83 81 76 74 73 82 75 83 84 82 84 76 75 77 80 82 78 81 79 80 81 80
60 60 60 60 60 60 60 60 60 60 60 61 62 62 59 57 64 89 83 81 82 82 80 80 77 77 73 78 81 79 83 89 86 86 78 77 78 80 83 82 82 82 81 79 79
60 60 60 60 60 60 60 60 60 60 61 62 63 62 57 54 86 89 90 84 83 81 81 82 79 83 79 80 78 84 86 88 84 84 80 74 80 79 82 83 80 80 78 79 80
59 59 59 60 60 60 60 59 59 60 61 62 65 63 60 62 89 90 89 82 86 83 79 85 87 82 83 77 87 86 80 86 83 82 75 78 73 74 74 84 79 79 79 79 80
59 59 59 59 59 59 59 59 59 61 61 63 65 62 53 82 81 81 85 85 89 87 85 86 89 83 80 84 84 78 78 72 83 80 84 76 66 71 77 81 79 80 80 80 80
59 59 59 59 59 58 57 58 62 66 63 64 60 58 58 85 77 84 86 87 87 85 86 93 86 78 80 74 69 72 66 69 77 87 87 75 69 74 80 77 75 78 81 82 80
58 58 58 58 58 57 57 59 65 62 64 70 71 56 67 75 85 89 90 90 86 85 82 80 77 71 73 69 58 63 64 70 72 84 86 77 72 76 77 75 72 73 79 82 81
58 58 58 58 57 56 55 57 66 61 67 61 64 67 68 81 84 87 91 86 85 80 69 75 67 65 70 73 74 74 72 71 78 84 84 79 72 73 71 71 69 68 67 80 84
58 58 57 57 56 57 57 66 67 69 58 70 71 70 75 77 69 78 90 78 76 69 75 70 64 74 78 78 75 74 71 71 78 85 82 79 73 72 72 72 71 68 66 69 84
58 57 57 56 56 63 66 70 78 75 56 62 69 69 70 73 68 71 79 80 74 70 71 66 71 80 78 75 73 72 70 71 72 81 83 78 71 70 75 73 69 69 67 70 78
57 57 56 54 60 64 68 76 78 76 46 60 64 74 75 73 68 82 83 81 75 70 73 71 78 76 74 73 75 65 78 78 77 73 65 79 59 65 69 68 68 71 72 75 76
57 57 55 54 54 60 70 77 78 69 35 70 68 83 75 68 73 77 85 79 71 73 73 68 73 73 71 74 79 71 80 77 77 71 65 71 67 68 71 66 67 69 75 77 80
57 56 55 60 63 67 75 77 70 45 40 61 66 63 63 66 70 77 78 81 82 75 76 74 83 78 77 81 81 82 76 74 74 69 58 67 64 67 68 70 69 74 75 77 80
55 54 53 62 59 75 73 67 45 39 63 57 56 60 59 58 62 63 60 68 64 60 61 71 74 80 83 74 79 76 68 56 54 56 55 64 61 64 78 82 76 77 78 80 86
54 53 59 69 71 73 69 54 38 55 54 62 59 58 53 59 57 57 53 54 71 69 60 59 58 73 81 75 70 71 69 53 44 49 55 65 60 67 81 86 92 90 89 89 90
54 63 67 73 74 72 58 43 45 53 58 55 55 50 50 56 55 52 49 50 62 72 60 60 61 79 80 83 79 69 65 71 55 56 52 59 67 76 84 83 86 91 92 89 90
54 60 64 76 76 66 52 45 53 61 60 57 45 50 44 50 48 47 45 55 52 55 59 67 57 75 79 82 82 74 75 61 63 48 48 58 63 65 73 79 80 83 90 91 91
58 55 70 78 73 59 47 51 57 63 62 52 48 46 46 48 46 45 45 51 53 50 54 55 62 65 75 72 70 70 67 68 60 57 49 48 60 79 78 80 81 84 85 93 91
55 48 71 74 55 57 50 55 55 59 60 55 54 50 47 47 46 43 44 49 55 50 44 53 52 58 63 75 82 77 71 70 61 53 56 55 62 79 78 86 86 86 86 89 93
49 54 69 66 46 46 51 53 57 54 53 51 49 52 50 47 39 41 43 53 53 48 47 51 47 49 58 66 74 73 76 73 66 61 57 56 57 82 81 86 88 82 87 85 86
51 44 53 56 56 48 44 46 48 58 54 52 49 51 46 46 48 41 42 51 54 50 54 54 49 48 51 60 66 68 74 75 69 63 61 63 62 75 77 78 79 81 83 83 84
53 45 48 40 43 42 46 47 42 43 51 53 45 49 45 40 41 43 45 48 53 51 49 48 43 54 60 66 69 70 74 75 70 69 64 66 66 71 71 77 77 80 82 84 83
47 41 43 39 43 44 45 42 42 46 46 45 46 47 46 40 42 40 46 45 44 47 43 47 44 51 54 67 69 69 75 77 75 75 72 73 69 76 78 79 78 79 80 79 80
53 49 41 39 39 39 41 42 41 46 48 51 50 45 43 50 54 53 56 55 52 44 41 42 47 45 45 60 62 56 68 75 76 78 76 66 70 76 73 78 76 76 80 80 81

GFSSW_sfc_temp_054.txt.gz
Temp
62 62 62 62 62 62 62 62 62 62 62 62 62 62 62 62 61 60 54 67 69 77 81 78 79 80 79 74 78 80 62 58 67 68 71 75 75 82 83 77 80 80 75 75 78
62 62 61 61 62 62 62 62 62 62 62 62 62 62 62 62 57 55 70 76 77 79 77 75 72 76 69 72 75 71 58 64 75 76 73 74 77 78 76 75 72 72 76 78 78
61 61 61 61 61 62 62 61 61 61 61 61 61 62 62 60 53 65 77 76 78 78 81 80 80 76 68 71 72 72 65 73 77 80 78 78 77 82 74 67 71 67 71 76 76
61 60 60 61 61 61 61 61 61 61 61 61 62 62 61 56 60 80 82 77 78 80 78 76 73 68 65 66 75 67 76 78 80 82 78 75 77 75 78 74 78 75 76 76 75
60 60 60 60 60 61 61 61 60 60 61 61 62 62 57 52 59 82 83 80 79 79 76 74 70 68 65 70 73 71 75 81 85 85 78 78 78 79 77 78 79 78 77 76 76
60 60 60 60 60 60 60 60 60 60 61 61 62 62 53 50 78 80 82 76 76 76 75 76 72 74 70 72 71 78 78 79 85 81 80 78 78 77 75 78 77 77 75 76 77
59 59 59 59 60 60 60 59 60 61 62 62 63 62 54 58 80 80 77 74 77 77 73 78 79 76 74 69 80 79 73 79 83 79 76 81 73 70 76 77 75 75 76 77 78
59 59 59 59 59 59 58 58 60 62 63 62 64 62 49 72 73 73 74 77 80 80 77 80 82 73 68 75 76 71 69 64 75 78 80 79 67 69 74 75 73 74 76 76 77
59 59 59 59 59 58 57 58 61 66 63 64 57 55 49 74 69 76 78 79 78 74 76 88 77 68 69 63 59 62 59 61 69 78 74 72 64 70 75 74 72 73 75 76 76
58 58 58 58 58 57 57 58 62 62 64 66 67 51 61 69 74 80 80 83 77 75 74 73 67 59 62 56 51 55 57 61 67 74 71 71 67 71 71 73 72 73 74 74 76
58 58 58 57 57 56 53 56 62 56 59 55 60 60 66 73 79 78 81 79 76 69 60 66 60 57 63 65 64 66 64 64 71 79 75 72 68 69 71 73 73 72 73 73 75
58 58 57 57 56 56 52 56 57 62 51 66 67 66 70 68 64 71 76 72 68 64 67 59 58 67 70 69 67 67 64 65 73 78 76 71 68 72 71 72 74 71 71 74 76
58 57 57 56 55 57 55 59 66 59 46 58 64 64 65 65 62 66 69 70 66 62 66 62 65 73 71 68 67 66 63 66 66 73 75 71 65 67 70 70 73 73 75 77 76
58 57 57 55 55 52 57 65 67 61 39 52 61 67 70 67 61 77 75 69 68 64 66 65 73 71 68 67 70 60 73 72 71 66 58 74 52 62 65 67 67 71 73 76 78
57 57 56 54 46 51 63 61 68 57 33 64 62 74 69 61 65 67 75 69 64 64 65 64 68 68 66 69 74 67 74 71 71 62 56 66 56 59 65 64 63 68 74 78 80
57 56 55 53 48 55 60 65 57 41 34 57 63 59 59 61 62 67 64 67 69 66 66 68 76 73 71 76 76 77 70 68 67 59 51 64 59 56 58 65 66 71 74 79 77
55 54 53 57 55 59 60 54 39 34 57 52 50 56 53 53 56 59 55 52 46 42 55 65 67 75 77 69 73 72 58 51 45 49 49 63 57 61 68 70 73 72 74 78 79
54 53 53 59 54 58 54 45 31 49 46 55 53 53 48 53 51 54 51 46 52 46 42 53 52 67 75 70 66 64 64 47 40 43 53 57 52 61 75 77 78 78 77 81 78
53 53 53 60 64 57 48 34 36 45 52 50 49 45 43 50 51 49 47 45 51 49 36 35 55 71 75 77 73 65 60 63 49 44 47 53 60 69 74 75 80 78 78 78 79
49 45 51 66 67 55 43 38 43 54 55 51 40 45 38 43 43 44 44 53 51 53 51 42 37 65 73 76 76 71 68 55 49 45 40 50 54 61 68 71 79 80 77 80 81
42 42 56 69 60 49 36 38 49 58 57 48 43 40 39 40 40 42 45 51 52 49 50 44 39 52 62 65 66 60 65 59 59 50 50 44 54 67 69 71 72 78 81 83 83
40 37 57 65 46 41 38 45 50 52 55 50 49 45 41 43 39 41 44 47 55 51 41 46 41 35 53 69 70 73 61 64 58 48 48 50 60 74 76 77 80 78 84 86 85
39 38 56 53 33 35 42 46 51 49 49 49 46 46 45 39 34 40 46 53 54 50 41 42 40 31 46 53 63 60 68 61 57 54 50 55 59 72 73 75 76 83 82 86 86
38 35 42 44 45 36 35 40 42 52 50 48 46 45 40 37 40 38 43 50 52 50 49 43 37 35 31 43 52 55 65 65 67 57 56 58 61 69 75 75 73 79 80 87 88
39 35 38 33 38 37 38 40 41 40 48 49 44 43 38 32 34 38 46 48 51 51 46 39 32 37 41 48 52 54 64 67 62 63 61 63 63 67 70 73 72 74 76 84 86
37 37 41 39 41 38 39 39 40 43 41 38 41 43 44 33 38 37 44 43 41 46 41 40 32 37 38 54 57 57 66 66 69 67 64 63 64 71 72 73 71 75 77 81 85
43 44 41 39 38 36 36 38 38 39 43 47 44 40 39 43 48 50 51 51 47 43 40 37 34 32 33 51 58 52 60 63 68 71 69 60 66 68 70 70 69 71 74 73 78

GFSSW_sfc_temp_057.txt.gz
Temp
62 61 61 61 62 62 62 62 62 62 62 62 62 62 62 62 61 58 53 65 66 76 80 76 76 76 77 71 76 77 59 55 63 65 67 74 73 79 77 72 78 77 72 74 76
61 61 61 61 61 62 62 62 62 62 62 62 61 62 62 61 55 52 68 74 74 78 76 71 68 73 66 69 71 65 58 62 74 74 67 72 75 74 72 73 70 71 75 76 75
61 61 61 61 61 61 61 61 61 61 61 61 61 62 62 59 52 63 78 75 77 78 78 76 75 72 65 67 69 67 60 68 75 77 73 73 74 79 72 66 69 66 70 73 73
61 61 60 61 61 61 61 61 61 61 61 61 61 63 61 54 59 76 81 76 77 77 77 74 71 65 62 62 70 62 72 74 75 79 79 74 76 75 74 73 76 73 74 73 72
60 60 60 60 60 60 61 60 60 60 61 61 61 63 55 51 58 77 80 77 76 75 74 71 67 65 62 64 69 67 70 76 79 76 80 80 76 74 76 77 76 76 74 72 73
59 59 59 59 60 60 60 60 60 60 61 62 61 62 52 50 74 78 77 74 73 73 73 71 69 70 66 66 67 72 73 74 77 77 78 78 75 74 74 76 73 73 72 73 74
59 59 59 59 60 60 60 59 59 61 62 63 62 62 53 58 73 71 72 69 73 74 70 76 73 72 69 64 74 73 68 73 76 76 76 79 73 68 73 73 70 71 72 74 75
59 59 59 59 59 59 59 58 59 62 62 62 64 62 49 69 68 70 70 71 76 73 72 77 75 69 65 69 70 65 64 57 68 75 78 78 63 69 73 71 69 71 72 74 74
58 59 59 59 59 58 57 58 61 65 63 64 56 52 49 71 68 74 72 74 73 70 70 83 71 63 65 60 55 56 51 58 66 75 74 72 64 69 72 71 69 70 72 73 74
58 58 58 58 58 56 56 58 63 62 64 65 64 50 59 65 70 75 76 77 72 70 69 67 63 56 53 52 50 50 52 57 62 70 71 66 65 68 70 71 69 70 71 72 74
58 58 58 58 57 56 52 58 54 52 56 51 57 59 63 67 72 73 75 72 71 65 56 61 53 54 60 62 60 60 59 60 66 72 67 66 65 66 69 70 69 69 70 71 74
58 58 58 57 56 55 52 57 57 58 46 62 63 63 66 62 61 70 72 66 64 57 60 55 53 63 65 64 61 60 57 58 66 73 69 67 66 68 69 69 70 69 70 72 73
58 58 57 56 54 55 51 55 60 54 44 54 60 62 64 60 59 64 67 66 62 59 60 55 59 68 65 62 60 59 58 59 61 68 72 67 62 63 68 71 72 72 72 74 73
58 57 56 55 55 50 56 58 57 58 38 51 57 64 66 64 58 72 69 62 62 59 62 59 69 66 63 61 64 53 67 67 66 61 56 68 48 58 64 65 69 72 72 74 75
57 57 55 54 46 50 61 56 55 56 31 59 58 69 64 57 61 64 71 63 55 57 57 60 63 63 61 64 67 61 68 66 65 57 55 63 53 55 65 62 66 70 74 74 76
56 56 55 50 45 51 57 55 55 41 33 52 58 55 54 56 58 63 61 62 61 53 60 60 70 68 68 70 70 71 64 61 57 53 48 59 60 53 59 64 67 72 74 75 77
55 54 52 55 53 54 56 52 39 33 52 48 46 51 49 48 52 55 52 45 41 41 38 50 61 67 71 64 68 67 55 43 41 43 48 57 56 62 66 71 71 72 75 75 78
53 52 52 58 56 55 52 45 31 45 43 50 49 49 45 48 45 49 46 42 45 43 37 33 45 61 69 65 60 60 56 43 36 38 45 57 49 58 72 75 76 79 79 79 79
52 46 50 56 62 53 48 32 33 41 49 47 44 41 39 47 46 45 43 43 45 43 35 35 38 53 59 70 69 60 56 61 47 41 46 54 54 66 70 72 73 74 78 77 79
46 40 46 61 58 51 42 36 39 50 51 47 37 42 35 39 40 38 40 48 47 48 45 41 33 47 54 64 70 66 64 50 47 40 38 46 50 56 64 68 71 72 74 77 79
40 40 54 61 54 45 35 35 45 52 53 45 41 38 37 37 37 37 40 49 52 50 46 40 38 41 49 54 59 61 59 55 56 49 48 40 50 61 66 72 70 74 76 78 78
37 38 54 55 41 36 35 41 48 48 50 48 46 42 38 39 35 38 39 44 53 50 41 43 38 35 39 55 56 53 60 55 55 46 45 47 56 70 70 71 75 75 78 81 81
39 35 50 50 32 31 38 42 47 47 47 46 45 44 41 36 32 39 43 51 49 46 40 42 37 30 40 46 53 52 64 65 59 50 48 52 55 69 67 70 70 72 76 80 79
41 33 39 41 38 37 33 38 41 51 49 47 45 47 39 34 36 36 40 49 51 48 49 45 36 32 31 37 41 40 46 52 59 56 51 57 56 66 70 70 70 72 74 80 80
36 33 36 33 33 36 38 36 38 40 49 47 42 43 37 31 33 34 40 43 47 47 44 40 33 35 36 40 42 42 44 48 47 58 58 62 57 65 67 69 71 71 72 76 81
36 36 37 39 41 38 38 36 37 40 38 39 37 41 40 32 34 32 37 37 39 40 39 39 33 35 33 41 43 41 49 52 54 61 60 59 61 66 65 64 65 65 70 77 81
43 46 42 40 38 36 36 37 37 38 40 43 41 38 37 39 44 44 44 44 42 37 36 35 34 31 27 45 50 46 51 53 59 55 57 56 58 65 59 63 62 62 66 78 82

GFSSW_sfc_temp_063.txt.gz
Temp
62 62 62 62 62 62 62 62 62 62 63 63 62 62 62 62 61 60 61 76 72 76 78 79 80 79 80 76 76 77 66 65 69 71 73 77 73 77 77 74 77 78 77 79 79
62 62 61 61 62 62 62 62 62 62 62 62 62 62 62 62 59 57 72 72 73 77 79 75 74 76 73 74 76 72 65 69 76 79 77 76 78 76 74 73 73 74 79 78 79
61 61 61 61 61 62 61 61 61 61 61 61 61 61 61 62 58 73 77 78 75 78 83 81 79 77 72 74 74 74 67 73 78 80 80 78 78 80 76 72 75 72 73 75 77
61 61 61 61 61 61 61 61 61 61 61 61 61 61 62 60 67 76 77 77 76 80 80 78 76 72 70 69 75 68 74 76 77 80 80 77 81 77 79 80 83 79 77 77 75
60 60 60 60 60 60 61 60 60 60 61 61 62 61 61 62 67 77 76 76 78 79 77 76 73 74 70 72 72 70 72 77 79 81 82 82 78 79 78 81 82 79 77 77 75
60 60 60 60 60 60 60 59 59 59 61 62 62 62 60 62 76 77 76 76 78 78 78 78 76 78 75 72 73 76 76 77 79 81 82 79 80 80 78 80 77 76 76 78 76
59 59 59 59 60 60 59 59 59 60 62 63 63 63 60 67 77 75 74 75 76 78 76 79 81 78 76 72 77 77 70 74 78 81 79 82 75 75 77 78 75 75 76 77 78
59 59 59 59 59 59 58 57 59 62 62 63 64 64 64 75 76 75 76 74 77 79 80 81 83 79 75 77 75 71 72 67 77 79 81 81 72 76 77 76 74 74 75 76 77
59 59 59 59 58 57 57 58 63 63 63 64 63 61 67 79 76 78 78 74 74 77 79 83 80 74 74 69 68 67 65 67 72 80 81 79 73 76 77 77 74 73 74 75 77
58 58 58 58 57 56 56 60 64 64 64 66 66 62 73 69 75 77 79 77 71 72 73 74 73 68 68 66 59 63 65 66 69 77 78 76 76 73 75 75 73 74 74 75 76
58 57 57 57 56 55 58 66 65 65 65 61 63 63 70 76 76 77 77 75 73 70 64 68 63 59 66 68 70 68 66 67 72 79 77 76 77 75 74 75 74 74 74 75 77
57 57 57 56 55 55 62 65 62 62 57 63 63 64 69 71 67 74 79 70 68 62 65 61 59 68 70 68 66 67 64 66 73 77 72 76 75 78 74 73 75 74 74 74 77
57 57 56 55 54 61 64 64 66 64 56 62 66 67 69 70 66 67 72 68 66 62 62 61 65 69 66 64 63 65 64 65 68 72 73 74 71 72 74 76 76 76 77 74 77
57 57 55 53 62 58 64 64 63 63 56 57 63 67 72 68 63 74 71 67 66 63 64 63 70 65 65 63 66 60 69 68 67 65 61 74 63 70 74 71 73 76 76 77 78
57 56 54 53 59 64 65 64 63 64 44 59 61 74 69 64 64 67 70 66 61 62 61 62 64 64 62 64 68 64 71 67 67 64 64 67 64 73 74 70 72 76 78 79 81
56 55 54 57 57 66 63 62 66 54 41 53 60 58 59 59 60 64 62 65 62 59 60 63 69 70 69 70 70 72 68 68 67 65 54 63 65 68 71 73 75 78 79 80 82
54 53 54 59 60 67 62 66 52 45 55 50 52 55 54 53 55 56 53 52 52 52 52 55 61 70 72 66 70 68 64 54 51 51 52 69 62 66 78 79 82 80 80 81 82
53 51 55 62 65 62 65 59 42 48 48 55 54 53 49 52 52 53 51 50 53 50 51 50 52 59 60 66 64 64 64 56 46 50 57 67 58 67 80 84 83 86 85 84 82
52 55 61 65 64 62 63 47 46 47 51 50 51 46 47 50 51 50 49 49 49 51 47 47 48 57 59 60 64 64 59 70 61 59 57 64 67 75 79 82 85 83 83 83 83
50 51 61 64 61 63 57 44 48 53 53 52 44 49 44 46 46 48 48 52 49 51 53 47 45 54 56 61 64 63 72 58 60 48 48 59 61 64 72 76 81 84 85 85 85
52 57 64 62 64 58 47 44 47 54 54 50 47 46 47 45 47 46 48 51 53 50 52 50 46 51 55 56 59 58 59 63 65 61 54 53 60 76 76 79 81 84 86 86 87
47 53 63 61 52 47 44 42 45 50 54 52 52 50 47 47 45 45 46 51 55 54 46 49 46 42 48 60 60 57 54 61 55 54 60 60 62 80 81 84 85 87 88 88 88
44 46 61 62 42 41 42 42 45 46 48 48 46 50 50 46 40 46 47 52 55 53 47 48 40 39 47 54 54 52 56 56 56 61 56 54 59 79 81 79 83 84 87 86 85
48 47 52 51 48 43 38 40 41 49 47 47 48 50 46 43 47 41 45 49 52 52 52 50 41 42 41 45 47 44 47 52 50 53 57 60 64 73 77 79 82 82 82 83 83
46 42 44 42 44 42 40 39 38 37 45 46 43 43 39 38 41 39 45 46 49 52 50 47 39 42 45 47 46 44 44 48 47 51 51 63 64 71 77 79 82 83 80 80 81
46 43 46 43 44 41 39 37 37 40 38 39 37 39 38 33 36 37 42 44 45 46 46 45 40 42 40 48 47 43 46 48 50 52 52 56 59 72 74 75 75 73 73 75 77
48 48 43 42 40 38 37 37 38 42 43 44 41 37 36 39 45 46 46 48 49 45 43 40 39 39 37 46 43 40 48 51 54 57 57 55 66 68 69 67 65 66 68 69 72

GFSSW_sfc_temp_069.txt.gz
Temp
63 63 63 62 63 63 63 63 63 63 63 63 63 63 63 63 62 71 79 84 85 78 77 95 93 95 96 92 96 92 75 76 70 78 73 93 88 92 89 86 88 88 90 92 95
63 62 62 62 62 62 62 62 62 63 63 63 63 63 63 63 73 82 81 77 76 76 87 91 89 92 89 90 92 87 79 70 80 89 82 90 87 91 88 87 83 88 94 93 94
62 62 62 62 62 62 62 62 62 62 62 62 62 63 63 66 78 86 78 76 76 79 92 97 96 92 87 92 90 89 77 88 85 92 93 91 89 93 88 85 88 87 88 88 87
61 61 61 61 61 61 61 61 61 61 61 62 62 63 63 74 75 88 79 78 78 87 90 94 92 86 85 85 92 84 92 93 83 92 90 89 91 91 89 70 96 93 90 86 85
61 60 60 60 60 61 61 61 61 61 61 62 63 63 67 78 84 93 81 81 86 87 87 90 88 87 84 89 90 86 90 92 94 92 92 93 90 88 92 97 97 94 90 85 88
60 60 60 60 60 60 60 60 60 60 61 63 63 64 73 77 92 94 92 88 91 89 90 93 91 93 89 90 88 92 91 92 94 93 88 89 91 93 92 97 93 91 89 89 90
60 60 60 60 60 60 59 59 60 61 63 65 64 71 82 81 93 95 93 92 93 93 90 96 97 92 91 86 94 92 84 89 91 93 90 94 83 88 92 94 91 90 90 91 92
59 59 59 59 59 59 58 58 61 64 64 65 65 79 81 91 97 93 93 92 95 97 97 98 99 92 90 94 87 85 86 80 91 92 93 92 78 91 94 92 89 89 90 90 92
59 59 59 59 58 58 57 58 63 65 65 66 73 81 81 84 88 92 94 88 91 94 94 97 94 86 89 82 80 83 77 79 85 94 92 90 78 69 93 93 89 89 90 90 91
58 58 58 58 57 57 56 58 65 65 69 81 84 79 86 83 88 90 93 92 88 87 85 86 83 80 83 80 71 77 78 84 82 91 91 88 81 66 87 93 89 90 89 89 90
58 58 58 57 56 56 63 77 76 76 83 78 81 80 82 89 92 87 91 90 88 84 76 81 75 73 79 83 84 86 84 82 89 94 88 86 86 74 91 93 90 90 89 90 91
58 57 57 57 56 55 67 81 77 78 73 83 81 83 85 88 81 85 92 82 80 74 79 78 72 81 85 85 82 82 80 82 88 93 90 87 83 83 91 91 92 90 89 90 92
58 57 57 56 55 66 83 78 86 84 73 78 82 81 83 86 80 80 86 85 78 75 78 75 79 84 82 81 79 80 79 80 81 88 89 87 82 86 85 92 94 93 92 93 92
57 57 56 54 61 87 82 85 88 86 68 71 75 80 83 83 76 84 86 82 80 75 78 78 85 80 79 78 81 74 83 82 81 80 75 87 71 82 80 86 90 92 93 94 93
57 57 55 52 77 83 81 89 88 83 55 72 75 86 83 78 78 79 85 81 74 77 77 75 77 77 75 78 82 76 85 81 81 79 79 79 75 83 86 79 87 92 93 95 96
57 56 55 70 81 85 88 88 83 64 54 67 74 72 74 76 76 79 79 83 82 74 78 77 86 83 81 83 83 83 80 80 81 78 67 75 77 78 81 85 87 94 96 95 97
55 54 58 79 80 87 87 81 64 59 71 65 68 71 70 71 71 72 72 73 70 64 66 74 75 82 83 77 83 79 75 64 62 64 63 79 75 79 90 94 94 95 95 97 98
53 52 63 82 87 86 81 70 54 66 66 70 68 68 64 70 70 69 68 67 73 71 68 66 65 76 82 76 75 76 76 66 55 61 67 78 71 78 92 98 99 101 99 99 98
52 79 86 85 85 83 72 61 64 65 67 64 67 62 65 67 65 66 67 68 72 71 63 66 66 78 79 82 80 75 70 81 72 78 71 77 79 88 93 93 95 97 99 95 99
69 79 79 86 87 80 69 59 64 68 66 67 58 64 60 65 61 65 65 69 66 68 72 68 59 76 77 78 78 76 83 69 71 58 59 72 75 76 83 87 92 94 96 97 100
69 73 81 87 85 74 65 64 63 68 65 61 60 60 62 61 63 62 63 67 68 67 70 69 64 66 73 68 68 71 70 71 76 72 63 64 74 90 87 88 90 94 96 98 101
76 71 81 85 70 73 65 61 52 63 67 63 63 61 59 60 57 58 60 65 69 68 61 68 65 58 66 75 79 76 73 74 65 63 71 71 74 94 94 94 94 94 97 100 101
72 73 82 83 65 63 62 61 61 60 60 60 59 61 63 58 51 58 61 69 67 64 61 66 58 52 57 68 74 68 72 73 76 76 66 65 70 90 92 92 94 94 96 98 99
71 67 72 72 71 63 59 58 56 62 60 59 58 60 57 55 59 52 54 61 65 65 59 61 59 56 54 58 65 63 68 71 71 65 67 68 74 84 86 87 89 92 95 97 98
72 63 63 59 60 61 61 58 54 51 60 60 54 52 49 47 52 53 56 59 61 62 60 61 52 57 60 63 63 62 64 66 64 68 62 71 72 80 85 87 90 92 93 94 94
65 64 67 61 56 54 49 44 45 51 51 51 50 54 51 43 48 48 53 49 51 56 58 61 48 53 52 60 61 58 61 63 64 66 65 67 67 80 82 83 86 88 90 89 90
69 67 66 54 54 52 48 46 46 51 55 55 52 51 50 51 56 58 63 62 61 53 49 47 49 46 44 55 58 51 59 62 64 68 67 62 70 77 77 78 82 86 85 85 87

GFSSW_sfc_temp_072.txt.gz
Temp
63 63 62 62 63 63 63 63 63 63 63 63 63 63 63 63 63 69 76 84 84 80 79 92 91 92 94 91 94 94 78 71 70 68 64 77 84 91 93 90 90 91 86 88 91
63 62 62 62 62 62 62 62 63 63 63 63 63 63 63 63 69 75 82 80 79 78 87 88 86 90 87 88 90 86 76 69 79 77 69 76 72 76 88 87 84 88 90 92 93
62 62 61 61 62 62 62 62 62 62 62 63 63 63 63 65 70 83 79 79 78 79 88 94 94 91 85 90 88 87 78 80 81 86 76 70 72 75 87 82 85 83 86 90 90
61 61 61 61 61 61 61 61 61 61 61 62 63 63 64 71 72 87 80 79 78 87 88 87 92 86 83 83 91 83 90 89 91 88 90 84 88 74 80 73 80 91 91 90 87
61 60 60 60 60 61 61 61 60 61 61 62 63 64 65 72 81 91 80 80 86 85 85 85 87 87 81 87 89 87 89 92 94 90 93 93 77 70 75 76 84 92 91 89 88
60 60 60 60 60 60 60 60 60 61 62 63 64 64 70 72 95 97 95 91 90 88 86 89 90 93 88 88 87 91 91 92 95 94 93 90 85 84 78 84 86 88 87 89 89
60 60 60 60 60 60 60 59 60 62 65 66 65 70 76 82 96 98 96 94 92 91 87 92 96 91 91 87 94 92 85 89 91 92 90 92 84 83 83 90 88 87 85 86 88
59 59 59 59 59 59 58 58 59 63 66 65 66 74 77 95 99 94 97 94 96 96 94 97 98 93 90 93 90 85 85 77 89 91 93 90 77 79 81 70 86 87 86 86 87
59 59 59 59 58 58 57 58 61 65 67 67 70 74 79 86 89 95 97 91 93 94 96 99 95 88 87 80 78 82 73 77 82 94 91 89 78 78 73 73 85 87 87 88 86
58 58 58 58 58 57 56 58 68 66 71 79 82 77 87 85 90 92 96 94 89 89 87 86 86 79 80 77 66 73 76 79 80 89 90 86 80 72 72 70 68 87 88 88 88
58 58 58 57 57 56 62 83 75 73 77 80 82 83 85 92 94 90 93 90 90 85 75 81 75 69 75 79 81 82 81 80 85 92 89 86 80 74 72 73 71 86 87 88 89
58 58 57 57 56 56 65 80 80 82 72 87 86 85 88 91 83 87 93 83 81 73 79 77 69 79 83 84 81 80 78 79 87 92 90 87 83 71 72 69 73 76 88 89 90
58 57 57 56 56 66 82 81 90 88 72 81 85 85 85 88 83 83 88 85 79 75 76 72 78 83 81 80 78 79 76 78 80 88 91 88 81 67 70 72 73 72 91 91 91
58 57 56 55 61 85 83 88 92 89 66 73 77 82 84 86 78 89 89 84 81 74 78 77 83 81 79 77 80 73 84 82 81 79 73 87 69 77 73 75 69 81 90 91 92
57 57 56 54 68 81 85 92 90 84 52 75 78 89 86 80 81 81 89 83 74 77 78 74 78 78 76 79 82 76 85 82 81 77 77 78 74 79 83 78 69 68 85 93 93
57 56 54 71 70 85 91 91 85 63 53 69 78 75 75 79 79 82 80 85 84 76 78 78 86 84 81 84 84 85 81 80 80 76 65 74 75 76 80 76 74 69 71 94 95
55 54 55 75 79 90 90 82 62 56 76 67 70 74 74 74 74 74 74 73 69 64 65 73 75 82 84 77 83 81 74 61 60 62 61 77 73 76 88 86 79 78 82 93 96
54 52 67 81 89 89 83 70 54 69 69 74 72 71 67 74 73 74 70 68 76 74 68 64 63 76 82 78 74 76 74 63 52 58 64 76 69 76 90 95 92 85 86 90 89
53 76 77 86 88 85 73 60 62 65 69 68 69 65 67 72 68 69 68 68 74 75 63 63 65 81 83 83 80 73 69 79 68 72 66 72 77 85 91 92 95 89 82 78 83
64 76 82 89 89 81 69 58 65 70 69 68 60 66 61 67 65 66 66 73 70 74 74 66 56 73 79 83 81 76 80 67 70 55 55 67 71 74 81 86 92 94 92 81 76
67 73 83 90 87 75 63 62 67 72 69 64 62 61 63 63 65 64 65 71 72 72 72 68 62 62 72 71 70 71 69 72 72 69 59 58 68 88 85 88 90 94 96 83 83
76 69 85 88 69 74 64 65 56 68 70 66 65 63 61 62 60 61 61 66 72 71 62 69 63 56 63 75 80 76 71 72 63 60 65 68 70 91 90 94 94 94 97 99 79
69 75 86 85 62 66 66 66 66 64 65 63 61 64 64 59 53 59 61 70 69 65 61 65 59 51 55 65 73 69 72 73 74 72 62 62 68 88 91 93 94 93 95 96 96
68 66 75 76 74 66 62 62 60 66 63 63 60 63 60 57 62 56 59 65 66 64 62 63 58 53 49 58 63 62 68 72 71 64 65 67 72 81 82 80 88 91 95 96 96
73 66 67 59 62 63 63 61 58 55 62 63 58 57 54 50 53 54 59 60 64 63 61 61 50 55 58 61 62 62 64 66 65 68 63 69 70 78 69 71 79 85 93 92 93
65 66 70 64 63 61 55 54 52 54 57 56 54 57 57 48 52 49 55 56 55 59 56 58 46 52 51 57 58 57 63 64 65 69 70 70 67 78 72 76 78 82 81 86 86
73 73 69 58 61 59 53 53 52 54 58 59 56 54 52 55 59 62 62 61 60 55 52 51 46 44 41 54 54 49 58 63 64 68 68 62 69 75 75 76 76 76 73 80 85

GFSSW_sfc_temp_075.txt.gz
Temp
62 62 62 62 62 62 62 63 63 63 63 63 63 63 63 63 62 63 64 77 76 80 79 83 84 84 85 78 83 85 69 64 65 68 64 69 66 77 85 77 82 82 80 82 86
62 62 62 62 62 62 62 62 62 62 62 63 63 63 63 63 61 63 77 80 79 78 82 79 78 81 75 78 79 76 69 70 73 73 67 74 67 66 74 81 77 79 84 86 86
62 62 61 61 62 62 62 62 62 62 62 62 62 63 63 63 59 73 80 80 79 78 83 84 85 81 74 79 78 77 70 79 79 77 77 71 66 69 70 77 78 75 80 83 84
61 61 61 61 61 61 61 61 61 61 61 62 62 63 63 61 62 80 79 79 78 81 81 80 79 74 72 72 81 73 82 84 87 86 75 70 73 68 68 70 83 83 84 84 84
60 60 60 60 60 60 61 61 60 60 61 62 62 63 59 61 69 86 80 79 78 79 78 77 75 74 72 76 80 78 82 87 90 85 77 79 72 70 68 75 81 85 85 84 84
60 60 60 60 60 60 60 60 60 60 62 64 63 64 58 60 89 87 84 80 83 79 77 80 78 82 79 78 77 83 84 85 87 88 86 77 73 71 76 81 82 84 83 86 86
60 60 59 59 60 60 59 59 59 60 62 66 65 66 66 68 91 89 87 82 83 81 77 83 85 79 81 76 85 84 76 81 83 82 86 85 69 73 73 78 81 82 84 85 86
59 59 59 59 59 59 58 58 59 61 63 66 66 66 61 89 86 90 87 86 87 85 82 86 88 82 79 83 82 73 72 64 78 82 86 84 61 68 72 76 77 78 84 84 84
59 59 59 59 58 58 57 57 60 63 65 67 61 61 65 83 82 87 86 86 86 83 83 92 86 77 78 69 63 66 57 64 72 84 83 80 60 65 69 73 69 75 78 81 84
58 58 58 58 57 57 56 59 65 64 66 73 74 62 73 77 82 88 87 90 84 82 80 78 75 67 66 60 52 58 60 64 67 78 81 77 67 67 70 71 65 69 72 79 81
58 58 58 57 57 56 55 64 63 59 66 67 68 74 82 84 87 86 89 84 82 76 65 72 61 58 64 68 70 70 68 67 73 81 77 77 66 68 70 68 66 66 70 77 81
58 58 57 57 56 56 54 60 70 71 62 78 81 81 84 79 77 83 86 75 73 65 70 64 59 70 76 75 72 70 67 67 74 82 75 74 66 70 69 68 70 71 72 76 82
58 57 57 56 55 58 66 72 81 77 60 72 79 78 78 77 76 76 79 77 72 67 68 62 68 77 75 71 70 69 64 67 68 77 78 73 62 65 69 72 71 73 77 74 82
57 57 56 55 56 69 71 77 82 80 50 66 70 76 78 76 71 86 82 73 72 67 70 67 76 75 71 69 72 59 75 76 74 68 56 70 52 59 66 66 71 72 67 70 68
57 57 55 53 53 63 76 81 79 71 40 71 71 82 78 70 73 74 84 74 66 69 66 64 70 70 69 72 76 68 76 72 72 65 57 67 55 60 67 62 66 71 69 70 69
57 56 55 62 56 66 76 81 73 49 45 67 74 70 68 71 73 78 76 74 76 69 69 68 78 73 71 78 78 79 71 69 65 58 49 60 55 62 61 68 66 67 66 68 68
55 54 53 65 66 78 80 70 48 45 70 64 65 70 68 65 70 72 67 62 56 48 50 64 67 74 78 68 73 70 56 45 45 47 49 59 57 63 70 76 69 65 65 70 77
54 52 59 70 76 79 72 56 44 61 62 71 69 69 63 68 64 68 63 59 66 62 55 50 51 66 74 67 62 62 58 48 40 42 51 61 53 63 78 82 77 72 73 77 80
53 66 67 75 77 76 60 48 51 59 64 63 65 60 59 68 65 64 59 59 64 63 48 50 53 69 73 74 72 62 56 63 52 55 51 56 63 75 78 77 78 76 77 76 80
53 62 70 82 82 71 56 53 58 65 66 65 55 61 54 60 60 57 56 65 65 68 63 55 45 60 68 70 71 65 66 51 51 41 43 51 57 57 67 73 77 77 78 80 77
57 61 75 83 78 62 53 56 63 69 68 60 57 55 56 56 57 55 57 61 67 64 64 53 48 52 60 55 57 60 55 54 54 51 48 45 53 69 70 72 77 79 81 83 77
64 58 77 79 59 62 55 60 57 65 67 63 63 60 55 56 52 53 55 60 66 63 53 56 48 42 51 63 67 64 59 58 48 46 50 48 52 78 77 73 76 82 84 82 79
57 65 79 79 54 57 60 62 63 61 59 59 58 59 58 52 45 54 57 65 65 60 50 52 44 37 44 52 56 55 61 61 55 52 49 46 52 75 70 71 72 73 74 79 75
59 57 65 69 65 58 55 58 57 64 60 60 58 58 53 49 52 49 55 63 65 61 63 57 43 40 37 45 52 50 55 58 55 49 51 55 59 61 65 68 71 73 74 75 77
61 58 61 52 55 57 57 55 53 51 59 59 55 55 50 42 46 47 51 54 60 62 56 48 38 44 49 53 54 54 53 54 53 53 44 56 59 61 65 68 71 73 75 75 75
56 55 61 56 59 56 53 50 50 51 53 53 50 54 52 41 45 43 48 46 46 53 48 49 38 43 42 50 52 51 54 55 55 58 57 59 61 69 66 73 73 74 71 72 72
64 65 58 55 56 51 49 51 52 54 56 59 55 50 48 51 54 55 55 53 51 47 45 43 38 36 32 45 46 41 51 53 56 59 59 52 55 67 62 67 70 72 68 69 71

GFSSW_sfc_temp_078.txt.gz
Temp
62 62 62 62 62 62 62 62 62 63 63 63 63 62 62 62 62 60 57 71 72 78 81 79 77 78 78 73 78 81 64 57 66 63 66 71 68 71 72 76 80 81 77 79 82
62 62 62 62 62 62 62 62 62 62 62 62 62 62 62 62 58 57 71 78 78 79 78 75 72 76 68 71 73 72 60 64 75 71 67 72 70 67 68 74 76 76 81 83 83
62 61 61 61 61 61 61 62 62 61 61 61 62 62 62 61 55 67 76 78 79 79 80 79 77 75 67 70 71 71 65 75 76 76 75 71 67 71 67 66 74 72 77 80 81
61 61 61 61 61 61 61 61 61 61 61 62 62 62 62 56 59 77 79 78 79 78 78 76 73 66 65 65 74 65 76 79 82 79 74 69 73 70 70 71 78 81 82 81 80
61 60 60 60 60 60 61 60 60 60 61 62 62 63 57 55 63 83 80 79 77 75 74 73 69 68 64 69 73 70 75 81 85 83 76 74 70 72 71 76 81 82 83 80 80
60 60 60 60 60 60 60 60 59 60 61 62 63 63 55 56 82 82 79 76 76 73 73 73 73 75 71 72 70 77 78 80 84 78 76 72 69 68 74 76 76 80 80 81 80
60 60 59 59 60 60 59 59 59 60 61 63 65 64 60 64 83 80 78 73 76 73 71 76 78 73 72 68 78 78 71 75 76 78 73 74 64 63 74 77 76 76 80 82 82
59 59 59 59 59 59 58 58 58 60 61 64 66 60 55 80 79 80 77 77 80 77 76 78 81 74 71 75 76 67 65 59 72 75 73 74 60 70 74 73 74 77 81 83 83
59 59 59 58 58 58 57 57 60 63 63 66 56 53 58 80 76 82 81 80 78 74 76 88 79 70 70 64 58 59 52 58 67 77 76 76 61 68 69 75 73 75 79 82 82
58 58 58 58 57 57 56 57 60 63 63 69 69 55 67 73 77 84 83 85 77 76 75 71 67 60 59 56 46 52 53 56 61 73 73 67 65 65 69 71 72 74 73 77 81
58 58 57 57 57 56 53 54 59 58 59 59 61 66 75 76 80 81 83 78 75 69 59 66 57 52 59 62 64 63 59 60 68 75 70 66 64 64 68 69 68 70 72 72 78
58 57 57 57 56 55 51 54 63 67 57 69 72 73 78 75 71 76 81 71 68 61 63 59 53 64 70 70 67 64 60 60 67 73 69 63 61 66 66 67 71 70 74 74 77
57 57 57 56 55 54 56 64 72 63 53 64 70 71 72 74 69 72 75 71 66 62 62 56 63 72 69 66 65 61 56 60 62 71 68 64 60 61 66 68 70 71 75 74 77
57 57 56 54 56 54 62 68 70 69 45 57 62 71 73 74 66 82 79 70 67 63 64 60 71 70 66 64 65 52 68 69 68 60 53 63 46 58 64 61 66 68 72 73 77
57 57 55 53 46 55 69 66 68 64 38 66 64 77 70 67 69 70 78 71 61 64 62 59 65 64 64 67 70 63 72 67 65 56 54 57 52 50 63 60 64 67 70 71 76
57 56 55 53 48 56 62 64 64 46 42 61 69 64 64 63 67 74 71 70 70 63 62 64 71 68 66 72 71 74 66 61 56 53 45 50 53 49 57 63 66 69 71 73 74
55 54 52 58 58 63 67 60 44 39 62 60 58 63 60 58 63 67 63 56 53 46 46 59 63 66 71 62 67 64 53 43 42 43 42 47 52 55 64 71 70 70 73 76 80
53 52 52 61 58 63 60 51 40 55 53 62 62 64 59 62 57 62 59 54 59 54 47 45 48 59 67 58 54 55 52 44 37 38 43 53 48 58 69 74 77 75 76 77 78
52 53 57 64 65 62 54 42 40 51 59 58 59 57 54 60 60 57 55 52 57 55 46 44 48 64 67 65 60 58 50 56 47 42 43 49 58 67 72 70 74 73 73 76 76
46 49 57 70 67 60 50 44 52 61 62 59 49 54 47 52 52 51 52 57 58 61 54 48 43 53 62 65 63 55 59 49 45 37 35 45 49 53 61 63 69 67 69 73 74
49 53 64 69 67 56 46 48 58 63 62 56 52 49 47 47 48 48 50 56 60 58 56 46 44 48 55 50 48 51 48 47 45 44 39 38 46 58 60 62 63 68 72 73 77
47 51 72 67 53 48 46 53 59 58 61 57 57 53 48 49 46 47 48 53 62 55 47 47 41 38 45 56 60 55 50 44 38 41 43 44 47 64 65 66 69 70 73 75 78
44 49 67 64 42 42 50 57 58 56 54 54 52 53 51 45 42 49 52 60 60 55 47 48 38 33 40 45 51 49 52 43 44 39 41 41 46 64 64 68 70 69 71 71 79
47 48 53 53 49 46 45 49 50 60 56 55 51 51 46 42 44 43 46 56 59 58 62 53 37 35 30 35 45 44 50 51 42 34 38 43 52 58 61 66 69 67 70 70 67
48 47 51 43 44 45 47 47 47 45 52 53 49 48 42 36 39 40 46 47 54 56 52 44 34 36 39 46 48 48 48 50 45 43 37 46 49 55 57 64 66 65 67 68 69
49 47 49 44 47 45 42 40 45 48 47 45 45 49 46 37 37 36 40 39 40 47 43 42 35 37 35 46 44 44 48 50 51 52 49 51 50 58 57 63 65 66 63 66 67
51 51 49 46 45 40 40 44 48 48 52 55 51 46 43 45 48 47 45 44 43 38 39 38 35 32 26 40 40 36 44 47 49 53 50 44 50 56 55 60 57 60 65 66 69

GFSSW_sfc_temp_081.txt.gz
Temp
62 62 62 62 62 62 62 62 62 62 62 62 62 62 62 62 61 57 55 69 69 77 80 76 74 74 73 70 75 77 61 57 64 61 65 70 67 71 71 70 79 79 75 75 77
62 62 61 61 61 62 62 62 62 62 62 62 61 62 62 62 55 54 69 75 77 78 75 71 68 71 65 68 71 66 59 61 71 72 68 71 68 68 66 71 74 74 77 78 75
61 61 61 61 61 61 61 61 61 61 61 61 62 62 61 59 53 67 75 77 78 78 78 77 74 72 62 67 68 67 61 70 74 75 75 69 68 70 67 66 74 70 72 75 73
61 61 61 61 61 61 61 61 61 60 61 61 62 62 62 54 56 74 76 78 79 76 76 73 70 65 61 63 70 63 72 75 77 75 72 69 72 68 70 71 79 77 77 74 73
61 60 60 60 60 61 61 60 60 60 60 61 63 62 55 53 62 78 78 78 75 74 72 70 67 64 61 65 68 66 73 79 79 76 75 74 70 71 70 74 75 79 78 75 74
60 60 60 60 60 60 60 59 59 59 60 61 63 62 52 53 77 78 76 74 73 71 70 71 69 71 66 66 66 72 74 75 77 77 74 71 69 72 73 78 73 77 76 77 76
59 59 59 59 59 60 59 59 59 59 60 62 64 62 56 62 78 77 75 69 72 71 68 72 74 71 68 65 73 73 68 72 71 71 71 72 65 66 72 73 71 73 77 78 77
59 59 59 59 59 59 58 58 58 59 61 62 65 58 53 77 75 77 73 71 74 72 71 74 77 70 66 71 71 63 62 58 64 70 72 70 58 70 73 70 71 75 78 78 77
59 59 59 58 58 57 57 57 59 62 63 64 55 53 57 77 73 75 75 75 73 69 71 84 74 66 66 60 55 57 51 55 64 71 69 65 59 69 71 71 69 73 76 78 75
58 58 58 58 57 57 56 57 60 62 63 66 66 53 64 69 73 80 76 79 73 72 71 68 64 57 55 53 46 50 51 52 58 69 74 64 64 66 68 70 70 71 75 75 77
58 57 57 57 57 55 53 50 55 54 57 58 59 63 69 73 78 77 80 76 72 67 57 62 55 51 57 60 62 60 56 55 62 70 65 65 63 64 67 71 68 70 74 75 79
58 57 57 57 56 55 52 52 58 61 54 65 68 67 72 69 67 73 78 69 65 59 61 56 51 62 66 65 63 59 56 55 63 69 63 60 60 65 64 67 70 71 73 75 79
57 57 57 56 55 52 53 60 66 60 50 61 65 67 69 70 67 68 73 68 64 59 59 53 61 69 66 61 60 54 53 55 59 65 63 61 57 60 64 66 68 71 71 75 77
57 57 56 54 55 52 58 62 63 62 44 55 57 69 70 70 62 77 76 69 64 61 61 58 67 67 62 61 61 48 64 65 63 57 51 59 46 55 62 61 64 67 67 69 75
57 56 55 53 46 55 66 60 60 62 37 62 61 73 66 64 66 69 75 69 61 62 60 58 60 60 60 63 66 59 66 63 62 54 50 54 49 50 60 59 62 67 68 69 73
56 55 54 50 46 54 58 59 62 45 41 57 65 62 62 60 64 70 68 69 67 62 59 61 67 64 63 68 68 70 61 57 51 50 43 51 50 50 53 60 63 68 70 71 73
55 53 52 56 59 57 59 58 44 37 57 55 54 58 57 54 59 62 59 55 51 46 45 56 59 62 66 57 62 59 50 41 41 41 41 45 49 55 61 64 67 68 71 72 74
53 51 52 57 55 60 58 51 38 52 49 58 58 60 54 57 55 57 53 49 56 51 44 43 45 56 64 55 51 50 50 42 37 36 42 47 47 56 66 70 70 73 74 74 74
52 51 53 59 60 58 55 42 39 46 55 55 53 52 50 56 56 54 49 47 53 51 43 42 44 60 63 62 57 52 46 50 43 38 43 45 53 61 64 66 67 68 70 72 75
47 50 56 64 63 58 52 44 49 57 58 55 47 50 44 49 52 49 47 53 53 56 49 44 40 49 58 61 59 53 53 44 42 36 35 43 46 49 55 59 64 65 67 68 71
50 54 63 62 62 55 44 45 54 60 61 53 48 47 43 45 47 46 47 53 57 55 52 42 42 46 52 48 47 47 43 42 41 40 36 37 44 55 56 60 62 64 66 68 70
48 49 67 62 50 42 43 52 56 55 57 54 53 48 46 46 43 44 44 49 58 52 46 45 38 36 42 52 56 53 43 39 36 34 37 39 44 60 60 63 64 64 66 68 70
47 46 62 60 43 40 46 52 55 53 51 51 50 51 48 41 39 44 49 57 58 53 45 46 36 32 37 43 47 44 47 39 38 34 32 33 42 63 61 62 63 64 66 67 66
48 45 50 50 43 44 41 44 47 56 52 51 47 48 44 41 41 41 44 52 55 54 58 50 34 34 31 34 41 40 46 46 39 33 34 38 43 53 56 57 61 61 66 66 66
47 44 44 40 43 42 42 45 45 43 49 49 46 45 39 34 36 37 41 44 51 52 48 42 33 34 37 42 44 44 45 46 40 40 36 43 44 51 53 54 56 59 62 66 66
46 45 45 40 43 41 41 39 44 46 46 43 43 46 43 35 36 34 37 36 37 45 40 39 32 33 34 43 43 40 44 46 47 48 46 46 46 49 53 57 55 55 57 61 66
47 47 47 43 40 40 39 43 46 46 50 51 49 43 41 43 46 45 44 42 38 36 37 36 33 29 26 36 39 34 41 44 45 47 47 42 43 50 49 52 52 53 56 59 61

GFSSW_sfc_temp_084.txt.gz
Temp
62 62 62 62 62 62 62 62 62 62 62 62 62 61 62 62 61 57 53 68 68 77 78 74 73 72 72 68 73 76 60 58 63 63 65 71 68 72 71 69 77 78 73 73 73
62 62 61 61 62 62 62 62 62 62 62 61 62 62 61 62 53 52 67 74 76 77 72 69 66 69 62 66 68 65 60 62 69 72 68 70 69 69 69 69 69 69 72 73 72
62 61 61 61 61 61 61 61 61 61 61 61 61 62 61 58 50 65 75 76 77 78 74 73 71 70 61 65 66 65 62 68 73 74 74 70 68 69 67 66 70 66 68 70 70
61 61 60 61 61 61 61 61 61 60 60 61 61 62 61 52 54 71 76 77 78 74 74 71 67 62 59 60 67 60 71 72 73 75 71 69 72 68 70 69 74 73 72 71 69
60 60 60 60 60 60 60 60 60 60 60 61 62 62 54 51 61 75 78 78 73 72 71 68 64 62 59 62 66 65 72 75 75 72 71 74 70 71 69 74 75 75 73 71 70
60 60 60 60 60 60 60 60 59 59 60 61 62 61 50 52 73 76 74 72 71 69 68 69 67 68 63 64 65 72 74 72 73 71 71 69 69 71 73 75 74 73 71 71 71
59 59 59 59 60 60 59 59 59 59 60 61 63 61 54 62 75 74 72 67 70 70 66 68 71 67 65 61 70 69 66 69 67 68 68 71 64 65 73 75 71 71 72 72 73
59 59 59 59 59 59 58 57 58 59 60 61 64 56 52 73 72 72 71 68 71 66 68 70 72 67 63 68 68 61 60 56 61 67 69 68 58 68 71 71 69 71 73 73 73
58 58 58 58 58 58 57 56 59 62 62 63 54 50 55 73 69 72 71 70 68 65 68 81 71 62 64 58 54 55 50 54 60 68 67 65 60 67 70 71 68 70 72 73 73
58 58 58 58 57 56 56 56 62 62 63 65 65 51 63 66 70 71 71 74 68 67 67 64 59 55 53 52 45 49 51 51 56 64 65 61 60 65 67 70 69 71 73 73 73
58 58 57 57 56 56 53 50 53 53 54 56 57 60 66 71 71 73 74 72 69 63 54 58 52 48 54 58 59 58 56 55 59 66 63 62 62 62 65 67 67 69 72 73 74
58 57 57 56 56 55 51 53 57 58 50 61 63 64 68 65 65 70 75 67 63 56 58 54 48 59 63 62 60 57 54 53 65 68 62 59 58 60 63 65 68 69 71 73 75
57 57 56 56 54 50 51 58 60 56 49 58 61 63 65 67 64 65 71 66 61 57 56 52 59 66 64 60 59 53 51 53 58 66 62 58 55 56 62 65 68 70 73 73 75
57 57 56 54 53 51 56 58 58 58 43 52 55 66 67 66 60 76 73 69 61 58 58 56 64 65 60 59 59 44 62 63 60 55 49 57 46 51 58 60 64 65 67 69 72
57 56 55 54 45 54 62 55 55 60 35 59 58 70 63 62 65 65 71 68 60 60 58 56 60 59 57 60 63 57 64 60 59 52 48 52 49 50 56 57 61 65 67 68 70
56 55 54 49 45 54 56 55 60 45 38 55 62 58 60 59 61 66 66 67 65 60 58 58 63 61 60 65 65 66 58 53 49 47 42 49 49 49 53 57 64 67 69 70 70
55 53 52 54 56 56 60 57 43 36 54 52 51 56 55 54 59 60 55 51 47 46 44 54 55 59 62 56 58 57 49 39 39 39 40 42 49 52 59 63 64 66 69 72 73
53 51 51 56 54 56 60 52 36 48 46 54 54 54 51 54 52 53 50 46 52 47 43 43 44 54 61 53 51 49 48 41 35 35 41 45 45 53 62 64 66 67 69 72 72
52 50 52 58 58 55 56 42 40 45 53 52 50 48 47 54 53 50 46 45 49 47 42 42 43 58 60 59 55 49 45 46 40 36 41 44 51 59 62 63 64 65 67 68 71
48 51 57 62 59 56 50 42 46 56 57 55 45 47 42 48 50 45 45 52 50 52 46 42 40 48 55 58 57 52 50 44 41 36 35 41 42 46 53 57 61 62 62 65 68
49 54 62 58 59 54 40 42 51 57 58 52 48 47 44 42 46 44 43 52 54 53 50 39 42 45 49 44 42 45 42 40 40 38 36 36 40 53 52 55 57 61 64 65 65
49 49 62 60 49 39 40 46 52 53 55 55 53 50 46 43 40 43 44 47 55 52 46 44 38 34 37 49 51 46 41 37 38 36 35 37 41 57 56 58 60 61 63 66 67
47 45 58 58 41 38 43 48 51 49 49 50 48 48 44 39 38 43 48 55 55 53 46 46 36 32 35 42 45 43 45 36 35 34 33 37 41 58 56 56 58 57 60 65 66
48 44 49 47 40 41 39 42 44 53 49 49 46 47 43 39 39 38 43 52 53 53 57 49 34 35 33 35 39 39 44 44 37 34 34 37 42 49 50 51 53 54 58 63 65
45 41 42 37 41 40 40 43 43 42 48 48 45 44 39 34 35 36 40 44 51 51 47 42 33 34 36 41 42 42 44 44 39 40 37 42 43 46 48 50 52 54 56 59 60
45 44 42 37 40 40 40 37 42 44 44 42 42 44 42 35 35 34 36 35 36 44 40 38 33 35 36 42 41 39 43 44 44 45 43 44 43 48 51 53 52 52 53 55 59
45 45 46 41 38 37 38 41 44 45 48 49 46 42 40 41 43 40 41 40 37 35 36 34 31 29 26 35 37 33 38 42 44 44 43 40 41 47 46 49 50 50 52 55 57